Wetterdaten: Donnerstag, 21.09.2017
Datum Zeit Temp. Aussen Temp. o. S. +5cm Feuchte Auss BlattFeu 1 Luftdruck Regen Sonnenschein Regendauer Solar Windben Empfang
21.09.2017 00:00 11,2 C 11,1 C 9,4 C 93 % 0 lf 1019,9 hPa 0,0 l/m 0 min 0 min 0 W/m 6,3 km/h (2 Bft) 93,62 %
21.09.2017 00:02 11,2 C 11,1 C 9,4 C 93 % 0 lf 1020,0 hPa 0,0 l/m 0 min 0 min 0 W/m 4,2 km/h (1 Bft) 91,30 %
21.09.2017 00:04 11,2 C 11,1 C 9,4 C 93 % 0 lf 1020,0 hPa 0,0 l/m 0 min 0 min 0 W/m 6,3 km/h (2 Bft) 97,87 %
21.09.2017 00:08 11,2 C 11,1 C 9,4 C 93 % 0 lf 1020,0 hPa 0,0 l/m 0 min 0 min 0 W/m 6,3 km/h (2 Bft) 95,29 %
21.09.2017 00:10 11,3 C 11,1 C 9,4 C 93 % 0 lf 1020,0 hPa 0,0 l/m 0 min 0 min 0 W/m 4,2 km/h (1 Bft) 95,74 %
21.09.2017 00:12 11,3 C 11,1 C 8,9 C 93 % 0 lf 1020,0 hPa 0,0 l/m 0 min 0 min 0 W/m 6,3 km/h (2 Bft) 91,30 %
21.09.2017 00:14 11,3 C 11,1 C 8,9 C 93 % 0 lf 1020,0 hPa 0,0 l/m 0 min 0 min 0 W/m 6,3 km/h (2 Bft) 95,74 %
21.09.2017 00:16 11,2 C 11,1 C 8,9 C 93 % 0 lf 1020,0 hPa 0,0 l/m 0 min 0 min 0 W/m 4,2 km/h (1 Bft) 95,74 %
21.09.2017 00:18 11,2 C 10,6 C 8,9 C 93 % 0 lf 1020,0 hPa 0,0 l/m 0 min 0 min 0 W/m 4,2 km/h (1 Bft) 95,74 %
21.09.2017 00:20 11,2 C 10,6 C 8,9 C 93 % 0 lf 1020,0 hPa 0,0 l/m 0 min 0 min 0 W/m 4,2 km/h (1 Bft) 95,74 %
21.09.2017 00:22 11,2 C 10,6 C 8,9 C 93 % 0 lf 1020,0 hPa 0,0 l/m 0 min 0 min 0 W/m 6,3 km/h (2 Bft) 95,74 %
21.09.2017 00:24 11,2 C 10,6 C 8,9 C 93 % 1 lf 1020,0 hPa 0,0 l/m 0 min 0 min 0 W/m 6,3 km/h (2 Bft) 93,48 %
21.09.2017 00:26 11,2 C 10,6 C 8,9 C 93 % 1 lf 1020,0 hPa 0,0 l/m 0 min 0 min 0 W/m 6,3 km/h (2 Bft) 95,74 %
21.09.2017 00:28 11,2 C 10,6 C 8,9 C 93 % 1 lf 1020,0 hPa 0,0 l/m 0 min 0 min 0 W/m 6,3 km/h (2 Bft) 91,49 %
21.09.2017 00:30 11,2 C 10,6 C 8,9 C 93 % 1 lf 1020,1 hPa 0,0 l/m 0 min 0 min 0 W/m 6,3 km/h (2 Bft) 95,74 %
21.09.2017 00:32 11,2 C 10,6 C 8,9 C 93 % 1 lf 1020,0 hPa 0,0 l/m 0 min 0 min 0 W/m 6,3 km/h (2 Bft) 95,74 %
21.09.2017 00:34 11,2 C 10,6 C 8,9 C 93 % 1 lf 1020,0 hPa 0,0 l/m 0 min 0 min 0 W/m 6,3 km/h (2 Bft) 95,74 %
21.09.2017 00:36 11,2 C 10,6 C 8,9 C 93 % 1 lf 1020,0 hPa 0,0 l/m 0 min 0 min 0 W/m 6,3 km/h (2 Bft) 95,65 %
21.09.2017 00:38 11,2 C 10,6 C 8,9 C 93 % 1 lf 1020,1 hPa 0,0 l/m 0 min 0 min 0 W/m 4,2 km/h (1 Bft) 97,87 %
21.09.2017 00:40 11,2 C 10,6 C 8,9 C 93 % 1 lf 1020,0 hPa 0,0 l/m 0 min 0 min 0 W/m 4,2 km/h (1 Bft) 95,74 %
21.09.2017 00:42 11,1 C 10,6 C 8,9 C 93 % 1 lf 1020,0 hPa 0,0 l/m 0 min 0 min 0 W/m 4,2 km/h (1 Bft) 97,87 %
21.09.2017 00:44 11,1 C 10,0 C 8,3 C 93 % 1 lf 1020,1 hPa 0,0 l/m 0 min 0 min 0 W/m 4,2 km/h (1 Bft) 93,62 %
21.09.2017 00:46 11,1 C 10,0 C 8,3 C 93 % 1 lf 1020,1 hPa 0,0 l/m 0 min 0 min 0 W/m 4,2 km/h (1 Bft) 97,87 %
21.09.2017 00:48 11,1 C 10,0 C 8,3 C 93 % 1 lf 1020,1 hPa 0,0 l/m 0 min 0 min 0 W/m 4,2 km/h (1 Bft) 97,83 %
21.09.2017 00:50 11,1 C 10,0 C 8,3 C 93 % 1 lf 1020,1 hPa 0,0 l/m 0 min 0 min 2 W/m 4,2 km/h (1 Bft) 97,87 %
21.09.2017 00:52 11,1 C 10,0 C 8,3 C 93 % 1 lf 1020,1 hPa 0,0 l/m 0 min 0 min 0 W/m 4,2 km/h (1 Bft) 95,74 %
21.09.2017 00:54 11,0 C 10,0 C 8,3 C 93 % 1 lf 1020,1 hPa 0,0 l/m 0 min 0 min 0 W/m 2,1 km/h (1 Bft) 97,87 %
21.09.2017 00:56 11,0 C 9,4 C 8,3 C 93 % 2 lf 1020,0 hPa 0,0 l/m 0 min 0 min 0 W/m 8,4 km/h (2 Bft) 97,87 %
21.09.2017 00:58 11,0 C 9,4 C 8,3 C 93 % 2 lf 1020,0 hPa 0,0 l/m 0 min 0 min 0 W/m 6,3 km/h (2 Bft) 97,83 %
21.09.2017 01:00 10,9 C 9,4 C 8,3 C 93 % 2 lf 1020,1 hPa 0,0 l/m 0 min 0 min 0 W/m 4,2 km/h (1 Bft) 95,74 %
21.09.2017 01:02 10,9 C 9,4 C 8,3 C 93 % 2 lf 1020,1 hPa 0,0 l/m 0 min 0 min 0 W/m 4,2 km/h (1 Bft) 95,74 %
21.09.2017 01:04 10,9 C 9,4 C 8,3 C 93 % 2 lf 1020,0 hPa 0,0 l/m 0 min 0 min 0 W/m 0,0 km/h (0 Bft) 97,87 %
21.09.2017 01:06 10,8 C 9,4 C 8,3 C 93 % 2 lf 1020,0 hPa 0,0 l/m 0 min 0 min 0 W/m 4,2 km/h (1 Bft) 97,87 %
21.09.2017 01:08 10,8 C 9,4 C 7,8 C 93 % 2 lf 1020,1 hPa 0,0 l/m 0 min 0 min 0 W/m 4,2 km/h (1 Bft) 100,00 %
21.09.2017 01:10 10,8 C 9,4 C 7,8 C 93 % 2 lf 1020,1 hPa 0,0 l/m 0 min 0 min 0 W/m 4,2 km/h (1 Bft) 95,65 %
21.09.2017 01:12 10,8 C 9,4 C 7,8 C 93 % 3 lf 1020,0 hPa 0,0 l/m 0 min 0 min 0 W/m 6,3 km/h (2 Bft) 100,00 %
21.09.2017 01:14 10,7 C 9,4 C 7,8 C 93 % 3 lf 1020,0 hPa 0,0 l/m 0 min 0 min 0 W/m 6,3 km/h (2 Bft) 97,87 %
21.09.2017 01:16 10,7 C 9,4 C 7,8 C 93 % 3 lf 1020,0 hPa 0,0 l/m 0 min 0 min 0 W/m 4,2 km/h (1 Bft) 95,74 %
21.09.2017 01:18 10,7 C 9,4 C 7,8 C 93 % 3 lf 1020,1 hPa 0,0 l/m 0 min 0 min 0 W/m 4,2 km/h (1 Bft) 97,87 %
21.09.2017 01:20 10,6 C 9,4 C 7,8 C 93 % 3 lf 1020,1 hPa 0,0 l/m 0 min 0 min 0 W/m 6,3 km/h (2 Bft) 93,62 %
21.09.2017 01:22 10,6 C 9,4 C 7,8 C 93 % 3 lf 1020,1 hPa 0,0 l/m 0 min 0 min 0 W/m 4,2 km/h (1 Bft) 91,30 %
21.09.2017 01:24 10,6 C 9,4 C 7,8 C 93 % 3 lf 1020,0 hPa 0,0 l/m 0 min 0 min 0 W/m 4,2 km/h (1 Bft) 93,62 %
21.09.2017 01:26 10,5 C 9,4 C 7,8 C 93 % 3 lf 1020,1 hPa 0,0 l/m 0 min 0 min 0 W/m 4,2 km/h (1 Bft) 95,74 %
21.09.2017 01:28 10,5 C 9,4 C 7,8 C 93 % 3 lf 1020,1 hPa 0,0 l/m 0 min 0 min 5 W/m 4,2 km/h (1 Bft) 95,74 %
21.09.2017 01:30 10,4 C 9,4 C 7,8 C 93 % 4 lf 1020,0 hPa 0,0 l/m 0 min 0 min 0 W/m 4,2 km/h (1 Bft) 93,62 %
21.09.2017 01:32 10,4 C 9,4 C 7,8 C 93 % 4 lf 1020,0 hPa 0,0 l/m 0 min 0 min 0 W/m 4,2 km/h (1 Bft) 93,62 %
21.09.2017 01:34 10,4 C 9,4 C 7,8 C 93 % 4 lf 1020,0 hPa 0,0 l/m 0 min 0 min 0 W/m 4,2 km/h (1 Bft) 95,65 %
21.09.2017 01:36 10,4 C 9,4 C 7,8 C 93 % 4 lf 1020,0 hPa 0,0 l/m 0 min 0 min 0 W/m 0,0 km/h (0 Bft) 93,62 %
21.09.2017 01:38 10,3 C 8,9 C 7,8 C 93 % 4 lf 1020,0 hPa 0,0 l/m 0 min 0 min 0 W/m 0,0 km/h (0 Bft) 93,62 %
21.09.2017 01:40 10,3 C 8,9 C 7,8 C 93 % 4 lf 1020,0 hPa 0,0 l/m 0 min 0 min 1 W/m 2,1 km/h (1 Bft) 93,62 %
21.09.2017 01:42 10,3 C 8,9 C 7,8 C 93 % 4 lf 1020,0 hPa 0,0 l/m 0 min 0 min 5 W/m 4,2 km/h (1 Bft) 97,87 %
21.09.2017 01:44 10,2 C 8,9 C 7,8 C 93 % 5 lf 1020,0 hPa 0,0 l/m 0 min 0 min 5 W/m 4,2 km/h (1 Bft) 95,74 %
21.09.2017 01:46 10,2 C 8,9 C 7,8 C 93 % 5 lf 1020,0 hPa 0,0 l/m 0 min 0 min 0 W/m 4,2 km/h (1 Bft) 97,83 %
21.09.2017 01:48 10,2 C 8,9 C 7,8 C 93 % 6 lf 1020,0 hPa 0,0 l/m 0 min 0 min 0 W/m 4,2 km/h (1 Bft) 95,74 %
21.09.2017 01:50 10,2 C 8,9 C 7,2 C 93 % 6 lf 1020,0 hPa 0,0 l/m 0 min 0 min 0 W/m 4,2 km/h (1 Bft) 95,74 %
21.09.2017 01:52 10,1 C 8,9 C 7,2 C 93 % 7 lf 1020,0 hPa 0,0 l/m 0 min 0 min 0 W/m 4,2 km/h (1 Bft) 97,87 %
21.09.2017 01:54 10,1 C 8,9 C 7,8 C 93 % 7 lf 1020,0 hPa 0,0 l/m 0 min 0 min 0 W/m 6,3 km/h (2 Bft) 100,00 %
21.09.2017 01:56 10,1 C 8,9 C 7,8 C 93 % 8 lf 1020,0 hPa 0,0 l/m 0 min 0 min 2 W/m 4,2 km/h (1 Bft) 97,83 %
21.09.2017 01:58 10,0 C 8,9 C 7,2 C 93 % 9 lf 1020,0 hPa 0,0 l/m 0 min 0 min 5 W/m 4,2 km/h (1 Bft) 95,74 %
21.09.2017 02:00 10,0 C 8,9 C 7,2 C 93 % 9 lf 1020,0 hPa 0,0 l/m 0 min 0 min 5 W/m 4,2 km/h (1 Bft) 97,87 %
21.09.2017 02:02 10,0 C 8,9 C 7,2 C 93 % 9 lf 1020,0 hPa 0,0 l/m 0 min 0 min 5 W/m 4,2 km/h (1 Bft) 93,62 %
21.09.2017 02:04 9,9 C 8,9 C 7,2 C 93 % 10 lf 1020,0 hPa 0,0 l/m 0 min 0 min 0 W/m 2,1 km/h (1 Bft) 97,87 %
21.09.2017 02:06 9,9 C 8,9 C 7,2 C 93 % 10 lf 1020,0 hPa 0,0 l/m 0 min 0 min 0 W/m 4,2 km/h (1 Bft) 97,87 %
21.09.2017 02:08 9,9 C 8,9 C 7,2 C 93 % 11 lf 1020,0 hPa 0,0 l/m 0 min 0 min 5 W/m 4,2 km/h (1 Bft) 100,00 %
21.09.2017 02:10 9,9 C 8,9 C 7,2 C 93 % 11 lf 1020,1 hPa 0,0 l/m 0 min 0 min 5 W/m 2,1 km/h (1 Bft) 100,00 %
21.09.2017 02:12 9,9 C 8,9 C 7,2 C 93 % 12 lf 1020,0 hPa 0,0 l/m 0 min 0 min 5 W/m 0,0 km/h (0 Bft) 100,00 %
21.09.2017 02:14 9,8 C 8,9 C 7,2 C 93 % 12 lf 1020,0 hPa 0,0 l/m 0 min 0 min 5 W/m 0,0 km/h (0 Bft) 95,74 %
21.09.2017 02:16 9,8 C 8,9 C 7,2 C 93 % 12 lf 1020,0 hPa 0,0 l/m 0 min 0 min 5 W/m 0,0 km/h (0 Bft) 100,00 %
21.09.2017 02:18 9,8 C 8,9 C 7,2 C 93 % 12 lf 1020,1 hPa 0,0 l/m 0 min 0 min 0 W/m 0,0 km/h (0 Bft) 97,87 %
21.09.2017 02:20 9,8 C 8,9 C 7,2 C 93 % 12 lf 1020,1 hPa 0,0 l/m 0 min 0 min 0 W/m 0,0 km/h (0 Bft) 100,00 %
21.09.2017 02:22 9,7 C 8,9 C 7,2 C 94 % 13 lf 1020,0 hPa 0,0 l/m 0 min 0 min 0 W/m 4,2 km/h (1 Bft) 97,87 %
21.09.2017 02:24 9,7 C 8,9 C 7,2 C 93 % 13 lf 1020,0 hPa 0,0 l/m 0 min 0 min 0 W/m 6,3 km/h (2 Bft) 100,00 %
21.09.2017 02:26 9,7 C 8,9 C 7,2 C 93 % 13 lf 1020,0 hPa 0,0 l/m 0 min 0 min 0 W/m 4,2 km/h (1 Bft) 95,74 %
21.09.2017 02:28 9,7 C 8,9 C 7,2 C 93 % 13 lf 1020,0 hPa 0,0 l/m 0 min 0 min 5 W/m 4,2 km/h (1 Bft) 100,00 %
21.09.2017 02:30 9,7 C 8,9 C 7,2 C 94 % 13 lf 1020,0 hPa 0,0 l/m 0 min 0 min 0 W/m 4,2 km/h (1 Bft) 100,00 %
21.09.2017 02:32 9,7 C 8,9 C 7,2 C 94 % 14 lf 1020,0 hPa 0,0 l/m 0 min 0 min 0 W/m 4,2 km/h (1 Bft) 100,00 %
21.09.2017 02:34 9,7 C 8,9 C 7,2 C 94 % 14 lf 1020,0 hPa 0,0 l/m 0 min 0 min 0 W/m 4,2 km/h (1 Bft) 100,00 %
21.09.2017 02:36 9,7 C 8,9 C 7,2 C 94 % 14 lf 1020,0 hPa 0,0 l/m 0 min 0 min 0 W/m 4,2 km/h (1 Bft) 100,00 %
21.09.2017 02:38 9,6 C 8,9 C 7,2 C 94 % 14 lf 1020,0 hPa 0,0 l/m 0 min 0 min 0 W/m 4,2 km/h (1 Bft) 95,74 %
21.09.2017 02:40 9,6 C 8,9 C 7,2 C 94 % 14 lf 1020,0 hPa 0,0 l/m 0 min 0 min 0 W/m 4,2 km/h (1 Bft) 100,00 %
21.09.2017 02:42 9,6 C 8,9 C 7,2 C 94 % 14 lf 1020,0 hPa 0,0 l/m 0 min 0 min 4 W/m 4,2 km/h (1 Bft) 100,00 %
21.09.2017 02:44 9,6 C 8,9 C 7,2 C 94 % 14 lf 1020,1 hPa 0,0 l/m 0 min 0 min 5 W/m 4,2 km/h (1 Bft) 100,00 %
21.09.2017 02:46 9,6 C 8,9 C 7,2 C 94 % 14 lf 1020,0 hPa 0,0 l/m 0 min 0 min 4 W/m 6,3 km/h (2 Bft) 95,74 %
21.09.2017 02:48 9,6 C 8,9 C 7,2 C 94 % 15 lf 1020,0 hPa 0,0 l/m 0 min 0 min 2 W/m 4,2 km/h (1 Bft) 97,87 %
21.09.2017 02:50 9,6 C 8,3 C 7,2 C 94 % 15 lf 1020,0 hPa 0,0 l/m 0 min 0 min 2 W/m 4,2 km/h (1 Bft) 95,74 %
21.09.2017 02:52 9,5 C 8,3 C 7,2 C 94 % 14 lf 1020,0 hPa 0,0 l/m 0 min 0 min 1 W/m 6,3 km/h (2 Bft) 97,87 %
21.09.2017 02:54 9,5 C 8,9 C 7,2 C 94 % 15 lf 1020,0 hPa 0,0 l/m 0 min 0 min 0 W/m 6,3 km/h (2 Bft) 97,87 %
21.09.2017 02:56 9,5 C 8,9 C 7,2 C 94 % 15 lf 1020,0 hPa 0,0 l/m 0 min 0 min 5 W/m 6,3 km/h (2 Bft) 95,65 %
21.09.2017 02:58 9,4 C 8,9 C 7,2 C 94 % 15 lf 1019,9 hPa 0,0 l/m 0 min 0 min 5 W/m 6,3 km/h (2 Bft) 97,87 %
21.09.2017 03:00 9,4 C 8,9 C 7,2 C 94 % 15 lf 1019,9 hPa 0,0 l/m 0 min 0 min 5 W/m 6,3 km/h (2 Bft) 97,87 %
21.09.2017 03:02 9,4 C 8,9 C 7,2 C 94 % 15 lf 1020,0 hPa 0,0 l/m 0 min 0 min 5 W/m 6,3 km/h (2 Bft) 93,62 %
21.09.2017 03:04 9,4 C 8,9 C 7,2 C 94 % 15 lf 1020,0 hPa 0,0 l/m 0 min 0 min 1 W/m 6,3 km/h (2 Bft) 95,74 %
21.09.2017 03:06 9,4 C 8,9 C 7,2 C 94 % 15 lf 1019,9 hPa 0,0 l/m 0 min 0 min 0 W/m 6,3 km/h (2 Bft) 93,62 %
21.09.2017 03:08 9,4 C 8,9 C 7,2 C 94 % 15 lf 1019,9 hPa 0,0 l/m 0 min 0 min 0 W/m 6,3 km/h (2 Bft) 95,65 %
21.09.2017 03:10 9,4 C 8,9 C 7,2 C 94 % 15 lf 1019,9 hPa 0,0 l/m 0 min 0 min 0 W/m 6,3 km/h (2 Bft) 91,49 %
21.09.2017 03:12 9,3 C 8,3 C 7,2 C 94 % 15 lf 1019,9 hPa 0,0 l/m 0 min 0 min 0 W/m 8,4 km/h (2 Bft) 95,74 %
21.09.2017 03:14 9,3 C 8,3 C 7,2 C 94 % 15 lf 1019,9 hPa 0,0 l/m 0 min 0 min 0 W/m 6,3 km/h (2 Bft) 95,74 %
21.09.2017 03:16 9,3 C 8,3 C 7,2 C 95 % 15 lf 1019,9 hPa 0,0 l/m 0 min 0 min 0 W/m 6,3 km/h (2 Bft) 93,62 %
21.09.2017 03:18 9,3 C 8,9 C 7,2 C 95 % 15 lf 1019,9 hPa 0,0 l/m 0 min 0 min 0 W/m 6,3 km/h (2 Bft) 93,48 %
21.09.2017 03:20 9,3 C 8,9 C 7,2 C 95 % 15 lf 1019,9 hPa 0,0 l/m 0 min 0 min 0 W/m 6,3 km/h (2 Bft) 93,62 %
21.09.2017 03:22 9,3 C 8,9 C 7,2 C 95 % 15 lf 1019,9 hPa 0,0 l/m 0 min 0 min 0 W/m 6,3 km/h (2 Bft) 97,87 %
21.09.2017 03:24 9,3 C 8,9 C 7,2 C 95 % 15 lf 1019,9 hPa 0,0 l/m 0 min 0 min 0 W/m 8,4 km/h (2 Bft) 95,74 %
21.09.2017 03:26 9,3 C 8,9 C 7,2 C 95 % 15 lf 1019,9 hPa 0,0 l/m 0 min 0 min 0 W/m 8,4 km/h (2 Bft) 89,36 %
21.09.2017 03:28 9,3 C 8,9 C 7,2 C 95 % 15 lf 1019,9 hPa 0,0 l/m 0 min 0 min 0 W/m 6,3 km/h (2 Bft) 91,49 %
21.09.2017 03:30 9,3 C 8,9 C 7,2 C 95 % 15 lf 1019,9 hPa 0,0 l/m 0 min 0 min 0 W/m 6,3 km/h (2 Bft) 91,30 %
21.09.2017 03:32 9,3 C 8,9 C 7,2 C 95 % 15 lf 1019,9 hPa 0,0 l/m 0 min 0 min 0 W/m 6,3 km/h (2 Bft) 95,74 %
21.09.2017 03:34 9,3 C 8,9 C 7,2 C 95 % 15 lf 1019,9 hPa 0,0 l/m 0 min 0 min 0 W/m 4,2 km/h (1 Bft) 93,62 %
21.09.2017 03:36 9,2 C 8,3 C 7,2 C 95 % 15 lf 1019,9 hPa 0,0 l/m 0 min 0 min 0 W/m 4,2 km/h (1 Bft) 95,74 %
21.09.2017 03:38 9,2 C 8,3 C 7,2 C 95 % 15 lf 1019,9 hPa 0,0 l/m 0 min 0 min 0 W/m 6,3 km/h (2 Bft) 95,74 %
21.09.2017 03:40 9,2 C 8,3 C 6,7 C 95 % 15 lf 1019,9 hPa 0,0 l/m 0 min 0 min 0 W/m 4,2 km/h (1 Bft) 93,62 %
21.09.2017 03:42 9,2 C 8,3 C 6,7 C 95 % 15 lf 1019,9 hPa 0,0 l/m 0 min 0 min 0 W/m 4,2 km/h (1 Bft) 97,83 %
21.09.2017 03:44 9,2 C 8,3 C 6,7 C 95 % 15 lf 1019,9 hPa 0,0 l/m 0 min 0 min 0 W/m 4,2 km/h (1 Bft) 97,87 %
21.09.2017 03:46 9,2 C 8,3 C 6,7 C 95 % 15 lf 1019,9 hPa 0,0 l/m 0 min 0 min 0 W/m 4,2 km/h (1 Bft) 95,74 %
21.09.2017 03:48 9,2 C 8,3 C 6,7 C 95 % 15 lf 1019,9 hPa 0,0 l/m 0 min 0 min 0 W/m 0,0 km/h (0 Bft) 97,87 %
21.09.2017 03:50 9,2 C 8,3 C 6,7 C 95 % 15 lf 1019,9 hPa 0,0 l/m 0 min 0 min 0 W/m 0,0 km/h (0 Bft) 95,74 %
21.09.2017 03:52 9,2 C 8,3 C 6,7 C 95 % 15 lf 1020,0 hPa 0,0 l/m 0 min 0 min 0 W/m 0,0 km/h (0 Bft) 97,87 %
21.09.2017 03:54 9,2 C 8,3 C 6,7 C 95 % 15 lf 1020,0 hPa 0,0 l/m 0 min 0 min 0 W/m 0,0 km/h (0 Bft) 97,83 %
21.09.2017 03:56 9,1 C 8,3 C 6,7 C 95 % 15 lf 1020,0 hPa 0,0 l/m 0 min 0 min 0 W/m 0,0 km/h (0 Bft) 97,87 %
21.09.2017 03:58 9,1 C 8,3 C 6,7 C 95 % 15 lf 1019,9 hPa 0,0 l/m 0 min 0 min 0 W/m 0,0 km/h (0 Bft) 97,87 %
21.09.2017 04:00 9,1 C 8,3 C 6,7 C 95 % 15 lf 1020,0 hPa 0,0 l/m 0 min 0 min 0 W/m 0,0 km/h (0 Bft) 95,74 %
21.09.2017 04:02 9,1 C 8,3 C 6,7 C 95 % 15 lf 1019,9 hPa 0,0 l/m 0 min 0 min 1 W/m 0,0 km/h (0 Bft) 100,00 %
21.09.2017 04:04 9,1 C 8,3 C 6,7 C 95 % 15 lf 1020,0 hPa 0,0 l/m 0 min 0 min 5 W/m 0,0 km/h (0 Bft) 95,74 %
21.09.2017 04:06 9,1 C 8,3 C 6,7 C 95 % 15 lf 1020,0 hPa 0,0 l/m 0 min 0 min 5 W/m 0,0 km/h (0 Bft) 95,65 %
21.09.2017 04:08 9,1 C 8,3 C 6,7 C 95 % 15 lf 1020,0 hPa 0,0 l/m 0 min 0 min 3 W/m 4,2 km/h (1 Bft) 97,87 %
21.09.2017 04:10 9,0 C 8,3 C 6,7 C 95 % 15 lf 1020,0 hPa 0,0 l/m 0 min 0 min 5 W/m 4,2 km/h (1 Bft) 100,00 %
21.09.2017 04:12 9,0 C 8,3 C 6,7 C 95 % 15 lf 1020,0 hPa 0,0 l/m 0 min 0 min 2 W/m 6,3 km/h (2 Bft) 100,00 %
21.09.2017 04:14 9,0 C 8,3 C 6,7 C 95 % 15 lf 1020,0 hPa 0,0 l/m 0 min 0 min 5 W/m 6,3 km/h (2 Bft) 93,62 %
21.09.2017 04:16 8,9 C 8,3 C 6,7 C 95 % 15 lf 1019,9 hPa 0,0 l/m 0 min 0 min 0 W/m 6,3 km/h (2 Bft) 91,49 %
21.09.2017 04:18 8,9 C 8,3 C 6,7 C 95 % 15 lf 1020,0 hPa 0,0 l/m 0 min 0 min 5 W/m 4,2 km/h (1 Bft) 97,83 %
21.09.2017 04:20 8,9 C 8,3 C 6,7 C 95 % 15 lf 1019,9 hPa 0,0 l/m 0 min 0 min 0 W/m 6,3 km/h (2 Bft) 95,74 %
21.09.2017 04:22 8,9 C 8,3 C 6,7 C 95 % 15 lf 1020,0 hPa 0,0 l/m 0 min 0 min 0 W/m 6,3 km/h (2 Bft) 93,62 %
21.09.2017 04:27 8,8 C 7,8 C 6,7 C 95 % 15 lf 1020,0 hPa 0,0 l/m 0 min 0 min 5 W/m 6,3 km/h (2 Bft) 98,31 %
21.09.2017 04:28 8,8 C 7,8 C 6,7 C 95 % 15 lf 1020,0 hPa 0,0 l/m 0 min 0 min 5 W/m 4,2 km/h (1 Bft) 95,65 %
21.09.2017 04:30 8,8 C 7,8 C 6,7 C 95 % 15 lf 1020,0 hPa 0,0 l/m 0 min 0 min 5 W/m 4,2 km/h (1 Bft) 95,74 %
21.09.2017 04:32 8,8 C 7,8 C 6,7 C 95 % 15 lf 1020,0 hPa 0,0 l/m 0 min 0 min 5 W/m 6,3 km/h (2 Bft) 95,74 %
21.09.2017 04:34 8,8 C 7,8 C 6,7 C 95 % 15 lf 1020,0 hPa 0,0 l/m 0 min 0 min 5 W/m 6,3 km/h (2 Bft) 93,62 %
21.09.2017 04:36 8,7 C 7,8 C 6,7 C 95 % 15 lf 1020,0 hPa 0,0 l/m 0 min 0 min 0 W/m 6,3 km/h (2 Bft) 95,74 %
21.09.2017 04:38 8,7 C 7,8 C 6,7 C 95 % 15 lf 1020,0 hPa 0,0 l/m 0 min 0 min 1 W/m 6,3 km/h (2 Bft) 97,87 %
21.09.2017 04:40 8,7 C 7,8 C 6,7 C 95 % 15 lf 1020,1 hPa 0,0 l/m 0 min 0 min 0 W/m 6,3 km/h (2 Bft) 97,83 %
21.09.2017 04:42 8,7 C 7,8 C 6,7 C 95 % 15 lf 1020,0 hPa 0,0 l/m 0 min 0 min 0 W/m 6,3 km/h (2 Bft) 97,87 %
21.09.2017 04:44 8,7 C 7,8 C 6,7 C 95 % 15 lf 1020,0 hPa 0,0 l/m 0 min 0 min 0 W/m 6,3 km/h (2 Bft) 95,74 %
21.09.2017 04:46 8,7 C 7,8 C 6,7 C 95 % 15 lf 1020,0 hPa 0,0 l/m 0 min 0 min 0 W/m 8,4 km/h (2 Bft) 97,87 %
21.09.2017 04:48 8,7 C 7,8 C 6,7 C 95 % 15 lf 1020,0 hPa 0,0 l/m 0 min 0 min 0 W/m 6,3 km/h (2 Bft) 97,87 %
21.09.2017 04:50 8,7 C 7,8 C 6,7 C 95 % 15 lf 1020,0 hPa 0,0 l/m 0 min 0 min 0 W/m 8,4 km/h (2 Bft) 93,62 %
21.09.2017 04:52 8,6 C 8,3 C 6,7 C 95 % 15 lf 1020,0 hPa 0,0 l/m 0 min 0 min 0 W/m 8,4 km/h (2 Bft) 95,65 %
21.09.2017 04:54 8,6 C 8,3 C 6,7 C 95 % 15 lf 1020,0 hPa 0,0 l/m 0 min 0 min 0 W/m 6,3 km/h (2 Bft) 97,87 %
21.09.2017 04:56 8,6 C 8,3 C 6,7 C 95 % 15 lf 1020,0 hPa 0,0 l/m 0 min 0 min 0 W/m 6,3 km/h (2 Bft) 95,74 %
21.09.2017 04:58 8,6 C 8,3 C 6,7 C 95 % 15 lf 1019,9 hPa 0,0 l/m 0 min 0 min 0 W/m 6,3 km/h (2 Bft) 97,87 %
21.09.2017 05:00 8,6 C 8,3 C 6,7 C 95 % 15 lf 1019,9 hPa 0,0 l/m 0 min 0 min 0 W/m 4,2 km/h (1 Bft) 95,74 %
21.09.2017 05:02 8,6 C 7,8 C 6,7 C 95 % 15 lf 1019,9 hPa 0,0 l/m 0 min 0 min 0 W/m 4,2 km/h (1 Bft) 95,74 %
21.09.2017 05:04 8,6 C 7,8 C 6,7 C 95 % 15 lf 1019,9 hPa 0,0 l/m 0 min 0 min 0 W/m 4,2 km/h (1 Bft) 97,83 %
21.09.2017 05:06 8,6 C 7,8 C 6,7 C 96 % 15 lf 1019,9 hPa 0,0 l/m 0 min 0 min 0 W/m 2,1 km/h (1 Bft) 93,62 %
21.09.2017 05:08 8,6 C 7,8 C 6,7 C 96 % 15 lf 1019,9 hPa 0,0 l/m 0 min 0 min 0 W/m 4,2 km/h (1 Bft) 95,74 %
21.09.2017 05:10 8,6 C 7,8 C 6,7 C 96 % 15 lf 1019,9 hPa 0,0 l/m 0 min 0 min 0 W/m 4,2 km/h (1 Bft) 97,87 %
21.09.2017 05:12 8,6 C 7,8 C 6,7 C 96 % 15 lf 1019,9 hPa 0,0 l/m 0 min 0 min 0 W/m 4,2 km/h (1 Bft) 97,87 %
21.09.2017 05:14 8,6 C 7,8 C 6,7 C 96 % 15 lf 1019,9 hPa 0,0 l/m 0 min 0 min 2 W/m 4,2 km/h (1 Bft) 93,62 %
21.09.2017 05:16 8,5 C 7,8 C 6,1 C 96 % 15 lf 1020,0 hPa 0,0 l/m 0 min 0 min 5 W/m 6,3 km/h (2 Bft) 95,65 %
21.09.2017 05:18 8,5 C 7,8 C 6,1 C 96 % 15 lf 1019,9 hPa 0,0 l/m 0 min 0 min 5 W/m 6,3 km/h (2 Bft) 95,74 %
21.09.2017 05:20 8,5 C 7,8 C 6,1 C 96 % 15 lf 1019,9 hPa 0,0 l/m 0 min 0 min 5 W/m 6,3 km/h (2 Bft) 97,87 %
21.09.2017 05:22 8,4 C 7,8 C 6,7 C 96 % 15 lf 1019,9 hPa 0,0 l/m 0 min 0 min 5 W/m 4,2 km/h (1 Bft) 97,87 %
21.09.2017 05:24 8,4 C 7,8 C 6,7 C 96 % 15 lf 1019,9 hPa 0,0 l/m 0 min 0 min 5 W/m 4,2 km/h (1 Bft) 91,49 %
21.09.2017 05:26 8,4 C 7,8 C 6,7 C 96 % 15 lf 1019,9 hPa 0,0 l/m 0 min 0 min 5 W/m 6,3 km/h (2 Bft) 89,36 %
21.09.2017 05:28 8,4 C 7,8 C 6,7 C 96 % 15 lf 1019,9 hPa 0,0 l/m 0 min 0 min 5 W/m 6,3 km/h (2 Bft) 95,65 %
21.09.2017 05:30 8,4 C 7,8 C 6,7 C 96 % 15 lf 1019,9 hPa 0,0 l/m 0 min 0 min 5 W/m 6,3 km/h (2 Bft) 97,87 %
21.09.2017 05:32 8,4 C 7,8 C 6,7 C 96 % 15 lf 1019,9 hPa 0,0 l/m 0 min 0 min 5 W/m 4,2 km/h (1 Bft) 95,74 %
21.09.2017 05:34 8,4 C 7,8 C 6,7 C 96 % 15 lf 1019,9 hPa 0,0 l/m 0 min 0 min 5 W/m 8,4 km/h (2 Bft) 97,87 %
21.09.2017 05:36 8,4 C 7,8 C 6,7 C 96 % 15 lf 1019,9 hPa 0,0 l/m 0 min 0 min 5 W/m 6,3 km/h (2 Bft) 97,87 %
21.09.2017 05:38 8,4 C 7,8 C 6,7 C 96 % 15 lf 1019,9 hPa 0,0 l/m 0 min 0 min 5 W/m 6,3 km/h (2 Bft) 95,74 %
21.09.2017 05:40 8,4 C 7,8 C 6,7 C 96 % 15 lf 1019,9 hPa 0,0 l/m 0 min 0 min 5 W/m 8,4 km/h (2 Bft) 97,83 %
21.09.2017 05:42 8,4 C 7,8 C 6,7 C 96 % 15 lf 1019,9 hPa 0,0 l/m 0 min 0 min 5 W/m 6,3 km/h (2 Bft) 97,87 %
21.09.2017 05:44 8,4 C 8,3 C 6,7 C 96 % 15 lf 1019,9 hPa 0,0 l/m 0 min 0 min 5 W/m 8,4 km/h (2 Bft) 97,87 %
21.09.2017 05:46 8,4 C 8,3 C 6,7 C 96 % 15 lf 1019,9 hPa 0,0 l/m 0 min 0 min 5 W/m 8,4 km/h (2 Bft) 95,74 %
21.09.2017 05:48 8,5 C 8,3 C 7,2 C 96 % 15 lf 1019,8 hPa 0,0 l/m 0 min 0 min 5 W/m 8,4 km/h (2 Bft) 95,74 %
21.09.2017 05:50 8,5 C 8,3 C 7,2 C 96 % 15 lf 1019,9 hPa 0,0 l/m 0 min 0 min 5 W/m 8,4 km/h (2 Bft) 97,83 %
21.09.2017 05:52 8,5 C 8,3 C 7,2 C 96 % 15 lf 1019,8 hPa 0,0 l/m 0 min 0 min 5 W/m 10,5 km/h (2 Bft) 97,87 %
21.09.2017 05:54 8,6 C 8,3 C 7,2 C 96 % 15 lf 1019,9 hPa 0,0 l/m 0 min 0 min 5 W/m 10,5 km/h (2 Bft) 93,62 %
21.09.2017 05:55 8,6 C 8,3 C 7,2 C 96 % 15 lf 1019,9 hPa 0,0 l/m 0 min 0 min 5 W/m 10,5 km/h (2 Bft) 99,12 %
21.09.2017 06:02 8,6 C 8,3 C 7,2 C 96 % 15 lf 1019,8 hPa 0,0 l/m 0 min 0 min 5 W/m 6,3 km/h (2 Bft) 96,00 %
21.09.2017 06:05 8,6 C 8,3 C 7,2 C 96 % 15 lf 1019,8 hPa 0,0 l/m 0 min 0 min 5 W/m 8,4 km/h (2 Bft) 75,44 %
21.09.2017 06:12 8,6 C 8,3 C 7,2 C 96 % 15 lf 1019,9 hPa 0,0 l/m 0 min 0 min 5 W/m 8,4 km/h (2 Bft) 100,00 %
21.09.2017 06:14 8,6 C 8,3 C 7,2 C 97 % 15 lf 1019,8 hPa 0,0 l/m 0 min 0 min 5 W/m 6,3 km/h (2 Bft) 100,00 %
21.09.2017 06:16 8,6 C 8,3 C 7,2 C 97 % 15 lf 1019,9 hPa 0,0 l/m 0 min 0 min 5 W/m 8,4 km/h (2 Bft) 100,00 %
21.09.2017 06:18 8,6 C 8,3 C 7,2 C 97 % 15 lf 1019,9 hPa 0,0 l/m 0 min 0 min 5 W/m 8,4 km/h (2 Bft) 97,87 %
21.09.2017 06:20 8,6 C 8,3 C 7,2 C 97 % 15 lf 1019,9 hPa 0,0 l/m 0 min 0 min 5 W/m 8,4 km/h (2 Bft) 100,00 %
21.09.2017 06:22 8,6 C 8,3 C 6,7 C 97 % 15 lf 1019,9 hPa 0,0 l/m 0 min 0 min 5 W/m 8,4 km/h (2 Bft) 100,00 %
21.09.2017 06:24 8,6 C 8,3 C 6,7 C 97 % 15 lf 1020,0 hPa 0,0 l/m 0 min 0 min 5 W/m 8,4 km/h (2 Bft) 100,00 %
21.09.2017 06:26 8,6 C 8,3 C 6,7 C 97 % 15 lf 1019,9 hPa 0,0 l/m 0 min 0 min 5 W/m 8,4 km/h (2 Bft) 97,87 %
21.09.2017 06:28 8,6 C 8,3 C 6,7 C 97 % 15 lf 1019,9 hPa 0,0 l/m 0 min 0 min 5 W/m 8,4 km/h (2 Bft) 97,87 %
21.09.2017 06:30 8,6 C 8,3 C 6,7 C 97 % 15 lf 1019,9 hPa 0,0 l/m 0 min 0 min 5 W/m 8,4 km/h (2 Bft) 97,87 %
21.09.2017 06:32 8,5 C 7,8 C 6,7 C 97 % 15 lf 1019,9 hPa 0,0 l/m 0 min 0 min 5 W/m 8,4 km/h (2 Bft) 100,00 %
21.09.2017 06:34 8,5 C 7,8 C 6,7 C 96 % 15 lf 1019,9 hPa 0,0 l/m 0 min 0 min 5 W/m 8,4 km/h (2 Bft) 100,00 %
21.09.2017 06:36 8,5 C 7,8 C 6,7 C 96 % 15 lf 1019,9 hPa 0,0 l/m 0 min 0 min 5 W/m 6,3 km/h (2 Bft) 97,83 %
21.09.2017 06:38 8,5 C 7,8 C 6,7 C 97 % 15 lf 1019,9 hPa 0,0 l/m 0 min 0 min 5 W/m 8,4 km/h (2 Bft) 100,00 %
21.09.2017 06:40 8,5 C 7,8 C 6,7 C 97 % 15 lf 1019,9 hPa 0,0 l/m 0 min 0 min 0 W/m 8,4 km/h (2 Bft) 100,00 %
21.09.2017 06:42 8,5 C 7,8 C 6,7 C 97 % 15 lf 1020,0 hPa 0,0 l/m 0 min 0 min 1 W/m 8,4 km/h (2 Bft) 97,87 %
21.09.2017 06:44 8,5 C 7,8 C 6,7 C 97 % 15 lf 1019,9 hPa 0,0 l/m 0 min 0 min 1 W/m 8,4 km/h (2 Bft) 97,87 %
21.09.2017 06:46 8,5 C 7,8 C 6,7 C 97 % 15 lf 1019,9 hPa 0,0 l/m 0 min 0 min 1 W/m 8,4 km/h (2 Bft) 97,87 %
21.09.2017 06:48 8,4 C 7,8 C 6,7 C 97 % 15 lf 1019,9 hPa 0,0 l/m 0 min 0 min 0 W/m 8,4 km/h (2 Bft) 97,83 %
21.09.2017 06:50 8,4 C 7,8 C 6,7 C 97 % 15 lf 1019,9 hPa 0,0 l/m 0 min 0 min 0 W/m 8,4 km/h (2 Bft) 97,87 %
21.09.2017 06:52 8,4 C 7,8 C 6,7 C 97 % 15 lf 1020,0 hPa 0,0 l/m 0 min 0 min 0 W/m 10,5 km/h (2 Bft) 97,87 %
21.09.2017 06:54 8,4 C 7,8 C 6,7 C 97 % 15 lf 1019,9 hPa 0,0 l/m 0 min 0 min 0 W/m 8,4 km/h (2 Bft) 97,87 %
21.09.2017 06:56 8,4 C 7,8 C 6,7 C 97 % 15 lf 1019,9 hPa 0,0 l/m 0 min 0 min 0 W/m 10,5 km/h (2 Bft) 97,87 %
21.09.2017 06:58 8,4 C 7,8 C 6,7 C 97 % 15 lf 1019,9 hPa 0,0 l/m 0 min 0 min 0 W/m 8,4 km/h (2 Bft) 97,87 %
21.09.2017 07:00 8,4 C 7,8 C 6,7 C 97 % 15 lf 1019,9 hPa 0,0 l/m 0 min 0 min 0 W/m 8,4 km/h (2 Bft) 97,83 %
21.09.2017 07:02 8,4 C 7,8 C 6,7 C 97 % 15 lf 1020,0 hPa 0,0 l/m 0 min 0 min 1 W/m 8,4 km/h (2 Bft) 97,87 %
21.09.2017 07:04 8,4 C 7,8 C 6,7 C 97 % 15 lf 1020,0 hPa 0,0 l/m 0 min 0 min 5 W/m 8,4 km/h (2 Bft) 97,87 %
21.09.2017 07:06 8,4 C 7,8 C 6,7 C 97 % 15 lf 1020,0 hPa 0,0 l/m 0 min 0 min 5 W/m 8,4 km/h (2 Bft) 97,87 %
21.09.2017 07:08 8,4 C 7,8 C 6,7 C 97 % 15 lf 1019,9 hPa 0,0 l/m 0 min 0 min 5 W/m 10,5 km/h (2 Bft) 93,62 %
21.09.2017 07:10 8,3 C 7,8 C 6,7 C 97 % 15 lf 1019,9 hPa 0,0 l/m 0 min 0 min 5 W/m 8,4 km/h (2 Bft) 95,74 %
21.09.2017 07:12 8,3 C 7,8 C 6,7 C 97 % 15 lf 1019,9 hPa 0,0 l/m 0 min 0 min 6 W/m 8,4 km/h (2 Bft) 93,48 %
21.09.2017 07:14 8,3 C 7,8 C 6,7 C 97 % 15 lf 1019,9 hPa 0,0 l/m 0 min 0 min 7 W/m 10,5 km/h (2 Bft) 95,74 %
21.09.2017 07:16 8,3 C 7,8 C 6,7 C 97 % 15 lf 1019,9 hPa 0,0 l/m 0 min 0 min 7 W/m 10,5 km/h (2 Bft) 91,49 %
21.09.2017 07:18 8,3 C 7,8 C 6,7 C 97 % 15 lf 1019,9 hPa 0,0 l/m 0 min 0 min 7 W/m 10,5 km/h (2 Bft) 95,74 %
21.09.2017 07:20 8,3 C 7,8 C 6,7 C 97 % 15 lf 1020,0 hPa 0,0 l/m 0 min 0 min 9 W/m 8,4 km/h (2 Bft) 97,87 %
21.09.2017 07:22 8,3 C 7,8 C 6,7 C 97 % 15 lf 1019,9 hPa 0,0 l/m 0 min 0 min 9 W/m 8,4 km/h (2 Bft) 95,74 %
21.09.2017 07:24 8,3 C 7,8 C 6,7 C 97 % 15 lf 1019,9 hPa 0,0 l/m 0 min 0 min 11 W/m 10,5 km/h (2 Bft) 89,13 %
21.09.2017 07:26 8,3 C 7,8 C 6,7 C 97 % 15 lf 1019,9 hPa 0,0 l/m 0 min 0 min 11 W/m 6,3 km/h (2 Bft) 97,87 %
21.09.2017 07:28 8,2 C 7,8 C 6,7 C 97 % 15 lf 1019,9 hPa 0,0 l/m 0 min 0 min 12 W/m 8,4 km/h (2 Bft) 95,74 %
21.09.2017 07:30 8,2 C 7,8 C 6,7 C 97 % 15 lf 1019,9 hPa 0,0 l/m 0 min 0 min 13 W/m 8,4 km/h (2 Bft) 95,74 %
21.09.2017 07:32 8,2 C 7,8 C 6,7 C 97 % 15 lf 1019,9 hPa 0,0 l/m 0 min 0 min 14 W/m 8,4 km/h (2 Bft) 93,62 %
21.09.2017 07:34 8,2 C 7,8 C 6,7 C 97 % 15 lf 1019,9 hPa 0,0 l/m 0 min 0 min 16 W/m 8,4 km/h (2 Bft) 93,48 %
21.09.2017 07:36 8,2 C 7,8 C 6,7 C 97 % 15 lf 1019,9 hPa 0,0 l/m 0 min 0 min 18 W/m 8,4 km/h (2 Bft) 95,74 %
21.09.2017 07:38 8,2 C 7,8 C 6,7 C 97 % 15 lf 1019,9 hPa 0,0 l/m 0 min 0 min 19 W/m 8,4 km/h (2 Bft) 93,62 %
21.09.2017 07:40 8,2 C 7,8 C 6,7 C 97 % 15 lf 1019,9 hPa 0,0 l/m 2 min 0 min 22 W/m 8,4 km/h (2 Bft) 95,74 %
21.09.2017 07:42 8,2 C 7,8 C 6,7 C 97 % 15 lf 1019,9 hPa 0,0 l/m 2 min 0 min 25 W/m 8,4 km/h (2 Bft) 93,62 %
21.09.2017 07:44 8,2 C 7,8 C 6,7 C 97 % 15 lf 1019,9 hPa 0,0 l/m 2 min 0 min 27 W/m 8,4 km/h (2 Bft) 95,74 %
21.09.2017 07:46 8,2 C 7,8 C 6,7 C 97 % 15 lf 1019,9 hPa 0,0 l/m 2 min 0 min 30 W/m 10,5 km/h (2 Bft) 97,83 %
21.09.2017 07:48 8,2 C 7,8 C 6,7 C 97 % 15 lf 1020,0 hPa 0,0 l/m 2 min 0 min 33 W/m 8,4 km/h (2 Bft) 95,74 %
21.09.2017 07:50 8,2 C 7,8 C 6,7 C 97 % 15 lf 1020,0 hPa 0,0 l/m 2 min 0 min 37 W/m 8,4 km/h (2 Bft) 93,62 %
21.09.2017 07:52 8,2 C 7,8 C 6,7 C 97 % 15 lf 1019,9 hPa 0,0 l/m 2 min 0 min 41 W/m 8,4 km/h (2 Bft) 95,74 %
21.09.2017 07:54 8,2 C 7,8 C 6,7 C 97 % 15 lf 1020,0 hPa 0,0 l/m 2 min 0 min 45 W/m 8,4 km/h (2 Bft) 95,74 %
21.09.2017 07:56 8,2 C 7,8 C 6,7 C 97 % 15 lf 1020,0 hPa 0,0 l/m 2 min 0 min 48 W/m 8,4 km/h (2 Bft) 95,74 %
21.09.2017 07:58 8,2 C 8,3 C 6,7 C 97 % 15 lf 1019,9 hPa 0,2 l/m 2 min 0 min 51 W/m 6,3 km/h (2 Bft) 95,65 %
21.09.2017 08:00 8,2 C 8,3 C 6,7 C 97 % 15 lf 1020,0 hPa 0,0 l/m 2 min 0 min 55 W/m 8,4 km/h (2 Bft) 95,74 %
21.09.2017 08:02 8,2 C 8,3 C 6,7 C 97 % 15 lf 1020,0 hPa 0,0 l/m 2 min 0 min 58 W/m 12,6 km/h (3 Bft) 97,87 %
21.09.2017 08:04 8,2 C 8,3 C 6,7 C 97 % 15 lf 1020,0 hPa 0,0 l/m 2 min 0 min 62 W/m 8,4 km/h (2 Bft) 93,62 %
21.09.2017 08:06 8,2 C 8,3 C 6,7 C 97 % 15 lf 1020,0 hPa 0,0 l/m 2 min 0 min 66 W/m 12,6 km/h (3 Bft) 95,74 %
21.09.2017 08:08 8,2 C 8,3 C 6,7 C 97 % 15 lf 1020,0 hPa 0,0 l/m 2 min 0 min 70 W/m 12,6 km/h (3 Bft) 89,36 %
21.09.2017 08:10 8,2 C 8,3 C 7,2 C 97 % 15 lf 1020,0 hPa 0,0 l/m 2 min 0 min 75 W/m 12,6 km/h (3 Bft) 95,65 %
21.09.2017 08:12 8,2 C 8,3 C 7,2 C 97 % 15 lf 1020,1 hPa 0,0 l/m 2 min 0 min 78 W/m 12,6 km/h (3 Bft) 93,62 %
21.09.2017 08:14 8,2 C 8,3 C 7,2 C 97 % 15 lf 1020,1 hPa 0,0 l/m 2 min 0 min 83 W/m 10,5 km/h (2 Bft) 93,62 %
21.09.2017 08:16 8,3 C 8,3 C 7,2 C 97 % 15 lf 1020,0 hPa 0,0 l/m 2 min 0 min 87 W/m 12,6 km/h (3 Bft) 95,74 %
21.09.2017 08:18 8,3 C 8,3 C 7,2 C 97 % 15 lf 1020,0 hPa 0,0 l/m 2 min 0 min 91 W/m 12,6 km/h (3 Bft) 95,74 %
21.09.2017 08:20 8,3 C 8,3 C 7,2 C 97 % 15 lf 1020,0 hPa 0,0 l/m 2 min 0 min 97 W/m 8,4 km/h (2 Bft) 93,62 %
21.09.2017 08:22 8,3 C 8,3 C 7,2 C 97 % 15 lf 1020,0 hPa 0,0 l/m 2 min 0 min 101 W/m 12,6 km/h (3 Bft) 95,65 %
21.09.2017 08:24 8,3 C 8,3 C 7,2 C 97 % 15 lf 1020,0 hPa 0,0 l/m 2 min 0 min 107 W/m 16,7 km/h (3 Bft) 93,62 %
21.09.2017 08:26 8,4 C 8,9 C 7,2 C 97 % 15 lf 1020,1 hPa 0,0 l/m 2 min 0 min 112 W/m 8,4 km/h (2 Bft) 91,49 %
21.09.2017 08:28 8,4 C 8,9 C 7,2 C 97 % 15 lf 1020,0 hPa 0,0 l/m 2 min 0 min 117 W/m 10,5 km/h (2 Bft) 95,74 %
21.09.2017 08:30 8,4 C 8,9 C 7,2 C 97 % 15 lf 1020,0 hPa 0,0 l/m 2 min 0 min 122 W/m 10,5 km/h (2 Bft) 95,74 %
21.09.2017 08:32 8,4 C 9,4 C 7,2 C 98 % 15 lf 1020,0 hPa 0,0 l/m 2 min 0 min 127 W/m 10,5 km/h (2 Bft) 95,74 %
21.09.2017 08:34 8,5 C 10,6 C 7,2 C 98 % 15 lf 1020,0 hPa 0,0 l/m 2 min 0 min 133 W/m 10,5 km/h (2 Bft) 95,65 %
21.09.2017 08:36 8,6 C 11,7 C 7,2 C 98 % 15 lf 1020,0 hPa 0,0 l/m 2 min 0 min 139 W/m 14,6 km/h (3 Bft) 95,74 %
21.09.2017 08:38 8,6 C 11,7 C 7,2 C 98 % 15 lf 1020,0 hPa 0,0 l/m 2 min 0 min 144 W/m 8,4 km/h (2 Bft) 93,62 %
21.09.2017 08:40 8,7 C 11,7 C 7,2 C 98 % 15 lf 1020,0 hPa 0,0 l/m 2 min 0 min 150 W/m 10,5 km/h (2 Bft) 95,74 %
21.09.2017 08:42 8,8 C 12,2 C 7,8 C 98 % 15 lf 1020,1 hPa 0,0 l/m 2 min 0 min 156 W/m 12,6 km/h (3 Bft) 97,87 %
21.09.2017 08:44 8,8 C 12,2 C 7,8 C 98 % 15 lf 1020,1 hPa 0,0 l/m 2 min 0 min 161 W/m 12,6 km/h (3 Bft) 95,74 %
21.09.2017 08:46 8,9 C 12,8 C 7,8 C 98 % 15 lf 1020,1 hPa 0,0 l/m 2 min 0 min 167 W/m 12,6 km/h (3 Bft) 97,83 %
21.09.2017 08:48 9,0 C 12,8 C 7,8 C 98 % 15 lf 1020,1 hPa 0,0 l/m 2 min 0 min 173 W/m 16,7 km/h (3 Bft) 97,87 %
21.09.2017 08:50 9,1 C 12,8 C 7,8 C 98 % 15 lf 1020,1 hPa 0,0 l/m 2 min 0 min 178 W/m 14,6 km/h (3 Bft) 95,74 %
21.09.2017 08:52 9,1 C 12,8 C 7,8 C 98 % 15 lf 1020,1 hPa 0,0 l/m 2 min 0 min 185 W/m 12,6 km/h (3 Bft) 97,87 %
21.09.2017 08:54 9,2 C 13,3 C 7,8 C 98 % 15 lf 1020,1 hPa 0,0 l/m 2 min 0 min 191 W/m 14,6 km/h (3 Bft) 97,87 %
21.09.2017 08:56 9,3 C 13,3 C 7,8 C 98 % 15 lf 1020,1 hPa 0,0 l/m 2 min 0 min 197 W/m 12,6 km/h (3 Bft) 95,65 %
21.09.2017 08:58 9,3 C 13,3 C 7,8 C 98 % 15 lf 1020,2 hPa 0,0 l/m 2 min 0 min 203 W/m 14,6 km/h (3 Bft) 95,74 %
21.09.2017 09:00 9,4 C 14,4 C 7,8 C 98 % 15 lf 1020,2 hPa 0,0 l/m 2 min 0 min 208 W/m 14,6 km/h (3 Bft) 97,87 %
21.09.2017 09:02 9,4 C 13,9 C 7,8 C 98 % 15 lf 1020,2 hPa 0,0 l/m 2 min 0 min 215 W/m 10,5 km/h (2 Bft) 97,87 %
21.09.2017 09:04 9,5 C 13,9 C 8,3 C 98 % 15 lf 1020,1 hPa 0,0 l/m 2 min 0 min 221 W/m 14,6 km/h (3 Bft) 97,87 %
21.09.2017 09:06 9,6 C 13,9 C 8,3 C 98 % 15 lf 1020,2 hPa 0,0 l/m 2 min 0 min 227 W/m 14,6 km/h (3 Bft) 93,62 %
21.09.2017 09:08 9,6 C 14,4 C 8,3 C 98 % 14 lf 1020,1 hPa 0,0 l/m 2 min 0 min 232 W/m 12,6 km/h (3 Bft) 97,83 %
21.09.2017 09:10 9,7 C 15,0 C 8,3 C 98 % 14 lf 1020,0 hPa 0,0 l/m 2 min 0 min 238 W/m 14,6 km/h (3 Bft) 97,87 %
21.09.2017 09:12 9,7 C 14,4 C 8,3 C 98 % 13 lf 1020,2 hPa 0,0 l/m 2 min 0 min 244 W/m 14,6 km/h (3 Bft) 95,74 %
21.09.2017 09:14 9,8 C 14,4 C 8,3 C 98 % 10 lf 1020,1 hPa 0,0 l/m 2 min 0 min 250 W/m 12,6 km/h (3 Bft) 97,87 %
21.09.2017 09:16 9,9 C 14,4 C 8,9 C 98 % 7 lf 1020,1 hPa 0,0 l/m 2 min 0 min 255 W/m 12,6 km/h (3 Bft) 97,87 %
21.09.2017 09:18 9,9 C 15,0 C 8,9 C 98 % 3 lf 1020,1 hPa 0,0 l/m 2 min 0 min 262 W/m 12,6 km/h (3 Bft) 97,87 %
21.09.2017 09:20 10,0 C 15,6 C 8,9 C 98 % 1 lf 1020,1 hPa 0,0 l/m 2 min 0 min 267 W/m 16,7 km/h (3 Bft) 95,65 %
21.09.2017 09:22 10,1 C 15,6 C 8,9 C 98 % 0 lf 1020,1 hPa 0,0 l/m 2 min 0 min 272 W/m 10,5 km/h (2 Bft) 95,74 %
21.09.2017 09:24 10,2 C 15,6 C 8,9 C 98 % 0 lf 1020,2 hPa 0,0 l/m 2 min 0 min 276 W/m 12,6 km/h (3 Bft) 97,87 %
21.09.2017 09:26 10,2 C 15,6 C 8,9 C 98 % 0 lf 1020,1 hPa 0,0 l/m 2 min 0 min 284 W/m 10,5 km/h (2 Bft) 100,00 %
21.09.2017 09:28 10,3 C 17,8 C 8,9 C 98 % 0 lf 1020,3 hPa 0,0 l/m 2 min 0 min 290 W/m 14,6 km/h (3 Bft) 100,00 %
21.09.2017 09:30 10,4 C 17,8 C 9,4 C 98 % 0 lf 1020,3 hPa 0,0 l/m 2 min 0 min 294 W/m 10,5 km/h (2 Bft) 100,00 %
21.09.2017 09:32 10,6 C 16,7 C 9,4 C 98 % 0 lf 1020,3 hPa 0,0 l/m 2 min 0 min 297 W/m 10,5 km/h (2 Bft) 100,00 %
21.09.2017 09:34 10,7 C 16,1 C 9,4 C 98 % 0 lf 1020,3 hPa 0,0 l/m 2 min 0 min 303 W/m 12,6 km/h (3 Bft) 97,87 %
21.09.2017 09:36 10,7 C 16,1 C 10,0 C 98 % 0 lf 1020,3 hPa 0,0 l/m 2 min 0 min 312 W/m 14,6 km/h (3 Bft) 97,87 %
21.09.2017 09:38 10,8 C 15,6 C 10,0 C 98 % 0 lf 1020,4 hPa 0,0 l/m 2 min 0 min 319 W/m 16,7 km/h (3 Bft) 95,74 %
21.09.2017 09:40 10,9 C 15,6 C 10,0 C 98 % 0 lf 1020,4 hPa 0,0 l/m 2 min 0 min 324 W/m 10,5 km/h (2 Bft) 97,87 %
21.09.2017 09:42 10,9 C 16,1 C 10,6 C 98 % 0 lf 1020,4 hPa 0,0 l/m 2 min 0 min 328 W/m 14,6 km/h (3 Bft) 100,00 %
21.09.2017 09:44 11,0 C 16,1 C 10,6 C 98 % 0 lf 1020,3 hPa 0,0 l/m 2 min 0 min 335 W/m 12,6 km/h (3 Bft) 100,00 %
21.09.2017 09:46 11,1 C 16,1 C 11,1 C 98 % 0 lf 1020,3 hPa 0,0 l/m 2 min 0 min 342 W/m 12,6 km/h (3 Bft) 95,74 %
21.09.2017 09:48 11,2 C 16,7 C 11,7 C 98 % 0 lf 1020,4 hPa 0,0 l/m 2 min 0 min 350 W/m 10,5 km/h (2 Bft) 100,00 %
21.09.2017 09:50 11,3 C 16,7 C 11,7 C 98 % 0 lf 1020,4 hPa 0,0 l/m 2 min 0 min 358 W/m 10,5 km/h (2 Bft) 100,00 %
21.09.2017 09:52 11,4 C 16,1 C 12,2 C 98 % 0 lf 1020,5 hPa 0,0 l/m 2 min 0 min 361 W/m 10,5 km/h (2 Bft) 100,00 %
21.09.2017 09:54 11,4 C 16,1 C 12,2 C 97 % 0 lf 1020,5 hPa 0,0 l/m 2 min 0 min 370 W/m 12,6 km/h (3 Bft) 97,83 %
21.09.2017 09:56 11,6 C 17,8 C 12,8 C 98 % 0 lf 1020,5 hPa 0,0 l/m 2 min 0 min 373 W/m 8,4 km/h (2 Bft) 93,62 %
21.09.2017 09:58 11,7 C 18,3 C 13,3 C 97 % 0 lf 1020,6 hPa 0,0 l/m 2 min 0 min 371 W/m 10,5 km/h (2 Bft) 97,87 %
21.09.2017 10:00 11,8 C 18,3 C 13,3 C 97 % 0 lf 1020,4 hPa 0,0 l/m 2 min 0 min 360 W/m 12,6 km/h (3 Bft) 95,74 %
21.09.2017 10:02 11,9 C 17,2 C 13,3 C 97 % 0 lf 1020,5 hPa 0,0 l/m 2 min 0 min 349 W/m 8,4 km/h (2 Bft) 97,87 %
21.09.2017 10:04 12,0 C 17,2 C 13,3 C 97 % 0 lf 1020,5 hPa 0,0 l/m 2 min 0 min 368 W/m 8,4 km/h (2 Bft) 93,62 %
21.09.2017 10:06 12,1 C 16,1 C 13,9 C 97 % 0 lf 1020,5 hPa 0,0 l/m 2 min 0 min 384 W/m 8,4 km/h (2 Bft) 97,83 %
21.09.2017 10:08 12,2 C 16,1 C 14,4 C 96 % 0 lf 1020,5 hPa 0,0 l/m 2 min 0 min 397 W/m 12,6 km/h (3 Bft) 95,74 %
21.09.2017 10:10 12,3 C 16,1 C 14,4 C 96 % 0 lf 1020,5 hPa 0,0 l/m 2 min 0 min 404 W/m 10,5 km/h (2 Bft) 97,87 %
21.09.2017 10:12 12,4 C 15,6 C 15,0 C 96 % 0 lf 1020,5 hPa 0,0 l/m 2 min 0 min 410 W/m 10,5 km/h (2 Bft) 97,87 %
21.09.2017 10:14 12,5 C 16,7 C 15,0 C 95 % 0 lf 1020,6 hPa 0,0 l/m 2 min 0 min 416 W/m 16,7 km/h (3 Bft) 95,74 %
21.09.2017 10:16 12,6 C 17,8 C 15,0 C 95 % 0 lf 1020,5 hPa 0,0 l/m 2 min 0 min 414 W/m 12,6 km/h (3 Bft) 95,74 %
21.09.2017 10:18 12,7 C 18,9 C 15,0 C 94 % 0 lf 1020,5 hPa 0,0 l/m 2 min 0 min 383 W/m 12,6 km/h (3 Bft) 93,48 %
21.09.2017 10:20 12,8 C 18,9 C 15,0 C 94 % 0 lf 1020,6 hPa 0,0 l/m 2 min 0 min 398 W/m 10,5 km/h (2 Bft) 95,74 %
21.09.2017 10:22 12,9 C 18,9 C 15,0 C 94 % 0 lf 1020,5 hPa 0,0 l/m 2 min 0 min 416 W/m 12,6 km/h (3 Bft) 97,87 %
21.09.2017 10:24 12,9 C 18,3 C 15,0 C 93 % 0 lf 1020,5 hPa 0,0 l/m 2 min 0 min 424 W/m 10,5 km/h (2 Bft) 97,87 %
21.09.2017 10:26 13,1 C 18,3 C 15,6 C 93 % 0 lf 1020,5 hPa 0,0 l/m 2 min 0 min 417 W/m 10,5 km/h (2 Bft) 95,74 %
21.09.2017 10:28 13,2 C 18,9 C 15,6 C 92 % 0 lf 1020,5 hPa 0,0 l/m 2 min 0 min 405 W/m 8,4 km/h (2 Bft) 97,87 %
21.09.2017 10:30 13,3 C 19,4 C 15,6 C 91 % 0 lf 1020,5 hPa 0,0 l/m 2 min 0 min 405 W/m 10,5 km/h (2 Bft) 97,83 %
21.09.2017 10:32 13,4 C 20,6 C 15,0 C 91 % 0 lf 1020,5 hPa 0,0 l/m 2 min 0 min 403 W/m 10,5 km/h (2 Bft) 97,87 %
21.09.2017 10:34 13,4 C 21,7 C 15,0 C 91 % 0 lf 1020,6 hPa 0,0 l/m 2 min 0 min 410 W/m 12,6 km/h (3 Bft) 97,87 %
21.09.2017 10:36 13,6 C 22,2 C 15,0 C 90 % 0 lf 1020,6 hPa 0,0 l/m 2 min 0 min 404 W/m 8,4 km/h (2 Bft) 95,74 %
21.09.2017 10:38 13,7 C 21,7 C 15,0 C 90 % 0 lf 1020,5 hPa 0,0 l/m 2 min 0 min 409 W/m 10,5 km/h (2 Bft) 97,87 %
21.09.2017 10:40 13,8 C 21,7 C 15,0 C 90 % 0 lf 1020,6 hPa 0,0 l/m 2 min 0 min 418 W/m 10,5 km/h (2 Bft) 100,00 %
21.09.2017 10:42 13,9 C 22,2 C 15,6 C 89 % 0 lf 1020,6 hPa 0,0 l/m 2 min 0 min 427 W/m 10,5 km/h (2 Bft) 97,83 %
21.09.2017 10:44 14,1 C 20,6 C 16,1 C 89 % 0 lf 1020,5 hPa 0,0 l/m 2 min 0 min 453 W/m 8,4 km/h (2 Bft) 100,00 %
21.09.2017 10:46 14,2 C 21,7 C 16,7 C 89 % 0 lf 1020,5 hPa 0,0 l/m 2 min 0 min 455 W/m 14,6 km/h (3 Bft) 97,87 %
21.09.2017 10:48 14,2 C 22,2 C 16,7 C 88 % 0 lf 1020,5 hPa 0,0 l/m 2 min 0 min 435 W/m 10,5 km/h (2 Bft) 97,87 %
21.09.2017 10:50 14,2 C 22,2 C 17,8 C 87 % 0 lf 1020,5 hPa 0,0 l/m 2 min 0 min 427 W/m 10,5 km/h (2 Bft) 97,87 %
21.09.2017 10:52 14,3 C 21,1 C 18,3 C 87 % 0 lf 1020,5 hPa 0,0 l/m 2 min 0 min 424 W/m 8,4 km/h (2 Bft) 97,87 %
21.09.2017 10:54 14,4 C 21,1 C 17,8 C 87 % 0 lf 1020,5 hPa 0,0 l/m 2 min 0 min 411 W/m 12,6 km/h (3 Bft) 95,65 %
21.09.2017 10:56 14,6 C 20,6 C 17,8 C 86 % 0 lf 1020,5 hPa 0,0 l/m 2 min 0 min 393 W/m 12,6 km/h (3 Bft) 97,87 %
21.09.2017 10:58 14,7 C 20,0 C 17,8 C 86 % 0 lf 1020,5 hPa 0,0 l/m 2 min 0 min 416 W/m 8,4 km/h (2 Bft) 95,74 %
21.09.2017 11:00 14,7 C 20,0 C 17,8 C 86 % 0 lf 1020,5 hPa 0,0 l/m 2 min 0 min 454 W/m 10,5 km/h (2 Bft) 97,87 %
21.09.2017 11:02 14,8 C 21,1 C 18,3 C 85 % 0 lf 1020,5 hPa 0,0 l/m 2 min 0 min 433 W/m 12,6 km/h (3 Bft) 93,62 %
21.09.2017 11:04 14,9 C 20,6 C 18,9 C 85 % 0 lf 1020,5 hPa 0,0 l/m 2 min 0 min 448 W/m 10,5 km/h (2 Bft) 89,36 %
21.09.2017 11:06 15,0 C 20,0 C 18,9 C 84 % 0 lf 1020,4 hPa 0,0 l/m 2 min 0 min 461 W/m 12,6 km/h (3 Bft) 91,30 %
21.09.2017 11:08 15,1 C 20,6 C 19,4 C 84 % 0 lf 1020,4 hPa 0,0 l/m 2 min 0 min 452 W/m 8,4 km/h (2 Bft) 95,74 %
21.09.2017 11:10 15,1 C 22,2 C 19,4 C 84 % 0 lf 1020,4 hPa 0,0 l/m 2 min 0 min 468 W/m 12,6 km/h (3 Bft) 95,74 %
21.09.2017 11:12 15,2 C 21,1 C 20,0 C 84 % 0 lf 1020,4 hPa 0,0 l/m 2 min 0 min 468 W/m 12,6 km/h (3 Bft) 93,62 %
21.09.2017 11:14 15,3 C 21,7 C 19,4 C 84 % 0 lf 1020,3 hPa 0,0 l/m 2 min 0 min 467 W/m 12,6 km/h (3 Bft) 93,62 %
21.09.2017 11:16 15,3 C 22,2 C 19,4 C 84 % 0 lf 1020,3 hPa 0,0 l/m 2 min 0 min 468 W/m 10,5 km/h (2 Bft) 93,48 %
21.09.2017 11:18 15,4 C 21,7 C 19,4 C 83 % 0 lf 1020,4 hPa 0,0 l/m 2 min 0 min 475 W/m 10,5 km/h (2 Bft) 93,62 %
21.09.2017 11:20 15,4 C 20,6 C 20,0 C 83 % 0 lf 1020,3 hPa 0,0 l/m 2 min 0 min 477 W/m 8,4 km/h (2 Bft) 93,62 %
21.09.2017 11:22 15,5 C 22,2 C 20,0 C 83 % 0 lf 1020,3 hPa 0,0 l/m 2 min 0 min 484 W/m 10,5 km/h (2 Bft) 92,00 %
21.09.2017 11:24 15,6 C 22,2 C 20,6 C 83 % 0 lf 1020,3 hPa 0,0 l/m 2 min 0 min 505 W/m 10,5 km/h (2 Bft) 93,62 %
21.09.2017 11:26 15,7 C 21,1 C 20,6 C 82 % 0 lf 1020,3 hPa 0,0 l/m 2 min 0 min 508 W/m 12,6 km/h (3 Bft) 91,49 %
21.09.2017 11:28 15,8 C 22,8 C 20,6 C 82 % 0 lf 1020,3 hPa 0,0 l/m 2 min 0 min 515 W/m 8,4 km/h (2 Bft) 93,48 %
21.09.2017 11:30 15,8 C 23,3 C 21,1 C 82 % 0 lf 1020,2 hPa 0,0 l/m 2 min 0 min 530 W/m 8,4 km/h (2 Bft) 93,62 %
21.09.2017 11:32 15,9 C 23,3 C 21,1 C 82 % 0 lf 1020,2 hPa 0,0 l/m 2 min 0 min 546 W/m 8,4 km/h (2 Bft) 93,62 %
21.09.2017 11:34 16,1 C 24,4 C 21,1 C 82 % 0 lf 1020,2 hPa 0,0 l/m 2 min 0 min 533 W/m 6,3 km/h (2 Bft) 93,62 %
21.09.2017 11:36 16,2 C 25,0 C 21,7 C 82 % 0 lf 1020,1 hPa 0,0 l/m 2 min 0 min 540 W/m 8,4 km/h (2 Bft) 93,62 %
21.09.2017 11:38 16,3 C 25,0 C 22,2 C 82 % 0 lf 1020,1 hPa 0,0 l/m 2 min 0 min 552 W/m 4,2 km/h (1 Bft) 93,48 %
21.09.2017 11:40 16,4 C 25,0 C 22,2 C 82 % 0 lf 1020,1 hPa 0,0 l/m 2 min 0 min 570 W/m 8,4 km/h (2 Bft) 93,62 %
21.09.2017 11:42 16,5 C 25,0 C 22,8 C 82 % 0 lf 1020,1 hPa 0,0 l/m 2 min 0 min 575 W/m 8,4 km/h (2 Bft) 95,74 %
21.09.2017 11:44 16,6 C 24,4 C 22,8 C 81 % 0 lf 1020,1 hPa 0,0 l/m 2 min 0 min 574 W/m 12,6 km/h (3 Bft) 95,74 %
21.09.2017 11:46 16,7 C 25,6 C 22,8 C 80 % 0 lf 1020,0 hPa 0,0 l/m 2 min 0 min 590 W/m 12,6 km/h (3 Bft) 95,74 %
21.09.2017 11:48 16,8 C 27,2 C 22,2 C 79 % 0 lf 1020,0 hPa 0,0 l/m 2 min 0 min 593 W/m 8,4 km/h (2 Bft) 93,62 %
21.09.2017 11:50 16,9 C 25,0 C 21,7 C 78 % 0 lf 1020,0 hPa 0,0 l/m 2 min 0 min 599 W/m 14,6 km/h (3 Bft) 95,65 %
21.09.2017 11:52 17,1 C 26,1 C 22,2 C 77 % 0 lf 1020,0 hPa 0,0 l/m 2 min 0 min 601 W/m 10,5 km/h (2 Bft) 93,62 %
21.09.2017 11:54 17,1 C 25,0 C 22,2 C 77 % 0 lf 1020,0 hPa 0,0 l/m 2 min 0 min 599 W/m 10,5 km/h (2 Bft) 93,62 %
21.09.2017 11:56 17,2 C 24,4 C 22,8 C 75 % 0 lf 1020,0 hPa 0,0 l/m 2 min 0 min 595 W/m 10,5 km/h (2 Bft) 93,62 %
21.09.2017 11:58 17,3 C 25,0 C 22,8 C 75 % 0 lf 1020,0 hPa 0,0 l/m 2 min 0 min 612 W/m 10,5 km/h (2 Bft) 93,62 %
21.09.2017 12:00 17,4 C 26,7 C 22,8 C 75 % 0 lf 1019,9 hPa 0,0 l/m 2 min 0 min 600 W/m 8,4 km/h (2 Bft) 97,87 %
21.09.2017 12:02 17,5 C 25,0 C 22,8 C 74 % 0 lf 1019,9 hPa 0,0 l/m 2 min 0 min 612 W/m 8,4 km/h (2 Bft) 97,83 %
21.09.2017 12:04 17,6 C 25,0 C 22,8 C 73 % 0 lf 1019,9 hPa 0,0 l/m 2 min 0 min 632 W/m 12,6 km/h (3 Bft) 100,00 %
21.09.2017 12:06 17,7 C 26,1 C 23,3 C 73 % 0 lf 1019,9 hPa 0,0 l/m 2 min 0 min 638 W/m 8,4 km/h (2 Bft) 100,00 %
21.09.2017 12:10 17,8 C 24,4 C 23,9 C 72 % 0 lf 1019,9 hPa 0,0 l/m 4 min 0 min 617 W/m 14,6 km/h (3 Bft) 100,00 %
21.09.2017 12:12 17,9 C 26,1 C 23,3 C 71 % 0 lf 1019,9 hPa 0,0 l/m 2 min 0 min 580 W/m 6,3 km/h (2 Bft) 95,74 %
21.09.2017 12:14 17,9 C 26,1 C 22,8 C 71 % 0 lf 1019,9 hPa 0,0 l/m 2 min 0 min 593 W/m 8,4 km/h (2 Bft) 97,87 %
21.09.2017 12:16 18,1 C 26,1 C 22,8 C 71 % 0 lf 1019,9 hPa 0,0 l/m 2 min 0 min 586 W/m 8,4 km/h (2 Bft) 100,00 %
21.09.2017 12:18 18,2 C 27,2 C 22,8 C 72 % 0 lf 1019,9 hPa 0,0 l/m 2 min 0 min 600 W/m 8,4 km/h (2 Bft) 100,00 %
21.09.2017 12:20 18,2 C 26,1 C 22,8 C 70 % 0 lf 1019,8 hPa 0,0 l/m 2 min 0 min 612 W/m 8,4 km/h (2 Bft) 97,87 %
21.09.2017 12:22 18,3 C 25,0 C 22,8 C 69 % 0 lf 1019,8 hPa 0,0 l/m 2 min 0 min 623 W/m 12,6 km/h (3 Bft) 100,00 %
21.09.2017 12:24 18,3 C 26,1 C 21,7 C 69 % 0 lf 1019,7 hPa 0,0 l/m 2 min 0 min 607 W/m 8,4 km/h (2 Bft) 100,00 %
21.09.2017 12:26 18,4 C 26,1 C 21,7 C 69 % 0 lf 1019,8 hPa 0,0 l/m 2 min 0 min 583 W/m 8,4 km/h (2 Bft) 97,83 %
21.09.2017 12:28 18,4 C 25,6 C 22,2 C 68 % 0 lf 1019,7 hPa 0,0 l/m 2 min 0 min 568 W/m 6,3 km/h (2 Bft) 97,87 %
21.09.2017 12:30 18,6 C 26,1 C 22,2 C 69 % 0 lf 1019,8 hPa 0,0 l/m 2 min 0 min 571 W/m 8,4 km/h (2 Bft) 95,74 %
21.09.2017 12:32 18,7 C 26,1 C 22,8 C 68 % 0 lf 1019,8 hPa 0,0 l/m 2 min 0 min 617 W/m 8,4 km/h (2 Bft) 97,87 %
21.09.2017 12:34 18,7 C 26,7 C 22,2 C 67 % 0 lf 1019,8 hPa 0,0 l/m 2 min 0 min 606 W/m 10,5 km/h (2 Bft) 95,74 %
21.09.2017 12:36 18,7 C 27,2 C 22,2 C 66 % 0 lf 1019,8 hPa 0,0 l/m 2 min 0 min 594 W/m 12,6 km/h (3 Bft) 97,87 %
21.09.2017 12:38 18,8 C 26,1 C 22,2 C 64 % 0 lf 1019,7 hPa 0,0 l/m 2 min 0 min 584 W/m 10,5 km/h (2 Bft) 95,65 %
21.09.2017 12:40 18,8 C 24,4 C 21,7 C 64 % 0 lf 1019,7 hPa 0,0 l/m 2 min 0 min 563 W/m 10,5 km/h (2 Bft) 95,74 %
21.09.2017 12:42 18,9 C 23,9 C 21,1 C 64 % 0 lf 1019,7 hPa 0,0 l/m 2 min 0 min 556 W/m 14,6 km/h (3 Bft) 95,74 %
21.09.2017 12:44 18,9 C 23,3 C 20,0 C 63 % 0 lf 1019,7 hPa 0,0 l/m 2 min 0 min 534 W/m 16,7 km/h (3 Bft) 95,74 %
21.09.2017 12:46 18,9 C 22,8 C 19,4 C 63 % 0 lf 1019,7 hPa 0,0 l/m 2 min 0 min 737 W/m 10,5 km/h (2 Bft) 95,74 %
21.09.2017 12:48 18,9 C 23,3 C 18,9 C 63 % 0 lf 1019,7 hPa 0,0 l/m 2 min 0 min 659 W/m 8,4 km/h (2 Bft) 95,74 %
21.09.2017 12:50 18,9 C 24,4 C 18,3 C 63 % 0 lf 1019,6 hPa 0,0 l/m 2 min 0 min 660 W/m 12,6 km/h (3 Bft) 97,83 %
21.09.2017 12:52 18,9 C 24,4 C 18,3 C 64 % 0 lf 1019,7 hPa 0,0 l/m 2 min 0 min 661 W/m 8,4 km/h (2 Bft) 95,74 %
21.09.2017 12:54 18,9 C 24,4 C 18,3 C 65 % 0 lf 1019,7 hPa 0,0 l/m 2 min 0 min 662 W/m 12,6 km/h (3 Bft) 97,87 %
21.09.2017 12:56 18,9 C 23,9 C 18,3 C 64 % 0 lf 1019,8 hPa 0,0 l/m 2 min 0 min 663 W/m 12,6 km/h (3 Bft) 95,74 %
21.09.2017 12:58 18,9 C 25,0 C 18,3 C 64 % 0 lf 1019,6 hPa 0,0 l/m 2 min 0 min 664 W/m 8,4 km/h (2 Bft) 97,87 %
21.09.2017 13:00 18,9 C 24,4 C 17,8 C 65 % 0 lf 1019,6 hPa 0,0 l/m 2 min 0 min 664 W/m 12,6 km/h (3 Bft) 95,74 %
21.09.2017 13:02 18,9 C 25,6 C 17,8 C 65 % 0 lf 1019,6 hPa 0,0 l/m 2 min 0 min 665 W/m 8,4 km/h (2 Bft) 95,65 %
21.09.2017 13:04 18,9 C 26,1 C 17,8 C 64 % 0 lf 1019,5 hPa 0,0 l/m 2 min 0 min 665 W/m 6,3 km/h (2 Bft) 97,87 %
21.09.2017 13:06 19,0 C 26,7 C 18,3 C 67 % 0 lf 1019,5 hPa 0,0 l/m 2 min 0 min 666 W/m 10,5 km/h (2 Bft) 97,87 %
21.09.2017 13:08 19,1 C 25,6 C 17,8 C 65 % 0 lf 1019,5 hPa 0,0 l/m 2 min 0 min 667 W/m 10,5 km/h (2 Bft) 97,87 %
21.09.2017 13:10 19,1 C 23,9 C 17,8 C 64 % 0 lf 1019,5 hPa 0,0 l/m 2 min 0 min 667 W/m 12,6 km/h (3 Bft) 97,87 %
21.09.2017 13:12 19,1 C 24,4 C 17,8 C 65 % 0 lf 1019,4 hPa 0,0 l/m 2 min 0 min 667 W/m 8,4 km/h (2 Bft) 100,00 %
21.09.2017 13:14 19,1 C 25,0 C 17,8 C 64 % 0 lf 1019,4 hPa 0,0 l/m 2 min 0 min 668 W/m 10,5 km/h (2 Bft) 100,00 %
21.09.2017 13:16 19,2 C 24,4 C 17,8 C 65 % 0 lf 1019,4 hPa 0,0 l/m 2 min 0 min 668 W/m 8,4 km/h (2 Bft) 100,00 %
21.09.2017 13:18 19,2 C 24,4 C 18,3 C 63 % 0 lf 1019,4 hPa 0,0 l/m 2 min 0 min 668 W/m 10,5 km/h (2 Bft) 100,00 %
21.09.2017 13:20 19,2 C 26,1 C 17,8 C 62 % 0 lf 1019,4 hPa 0,0 l/m 2 min 0 min 668 W/m 16,7 km/h (3 Bft) 95,74 %
21.09.2017 13:22 19,2 C 26,1 C 17,8 C 63 % 0 lf 1019,4 hPa 0,0 l/m 2 min 0 min 595 W/m 10,5 km/h (2 Bft) 95,74 %
21.09.2017 13:24 19,3 C 27,2 C 17,8 C 63 % 0 lf 1019,4 hPa 0,0 l/m 2 min 0 min 586 W/m 8,4 km/h (2 Bft) 97,87 %
21.09.2017 13:26 19,3 C 28,9 C 17,8 C 62 % 0 lf 1019,3 hPa 0,0 l/m 2 min 0 min 581 W/m 10,5 km/h (2 Bft) 97,87 %
21.09.2017 13:28 19,4 C 27,2 C 18,3 C 63 % 0 lf 1019,3 hPa 0,0 l/m 2 min 0 min 580 W/m 10,5 km/h (2 Bft) 97,83 %
21.09.2017 13:30 19,4 C 25,6 C 17,8 C 62 % 0 lf 1019,3 hPa 0,0 l/m 2 min 0 min 669 W/m 8,4 km/h (2 Bft) 97,87 %
21.09.2017 13:32 19,4 C 26,1 C 17,8 C 62 % 0 lf 1019,3 hPa 0,0 l/m 2 min 0 min 669 W/m 6,3 km/h (2 Bft) 97,87 %
21.09.2017 13:34 19,4 C 27,2 C 17,8 C 63 % 0 lf 1019,3 hPa 0,0 l/m 2 min 0 min 668 W/m 14,6 km/h (3 Bft) 93,62 %
21.09.2017 13:36 19,5 C 27,2 C 17,8 C 62 % 0 lf 1019,3 hPa 0,0 l/m 2 min 0 min 668 W/m 14,6 km/h (3 Bft) 97,87 %
21.09.2017 13:38 19,6 C 25,6 C 18,3 C 61 % 0 lf 1019,2 hPa 0,0 l/m 2 min 0 min 668 W/m 18,8 km/h (3 Bft) 91,49 %
21.09.2017 13:40 19,6 C 25,6 C 17,8 C 61 % 0 lf 1019,2 hPa 0,0 l/m 2 min 0 min 668 W/m 14,6 km/h (3 Bft) 97,83 %
21.09.2017 13:42 19,6 C 25,0 C 17,8 C 61 % 0 lf 1019,2 hPa 0,0 l/m 2 min 0 min 667 W/m 12,6 km/h (3 Bft) 95,74 %
21.09.2017 13:44 19,7 C 25,0 C 17,8 C 61 % 0 lf 1019,2 hPa 0,0 l/m 2 min 0 min 667 W/m 12,6 km/h (3 Bft) 97,87 %
21.09.2017 13:46 19,7 C 26,1 C 17,8 C 62 % 0 lf 1019,2 hPa 0,0 l/m 2 min 0 min 666 W/m 12,6 km/h (3 Bft) 95,74 %
21.09.2017 13:48 19,7 C 26,1 C 17,8 C 62 % 0 lf 1019,1 hPa 0,0 l/m 2 min 0 min 666 W/m 10,5 km/h (2 Bft) 95,74 %
21.09.2017 13:50 19,7 C 26,1 C 18,3 C 63 % 0 lf 1019,1 hPa 0,0 l/m 2 min 0 min 665 W/m 14,6 km/h (3 Bft) 96,55 %
21.09.2017 13:52 19,8 C 26,1 C 18,3 C 63 % 0 lf 1019,1 hPa 0,0 l/m 2 min 0 min 665 W/m 12,6 km/h (3 Bft) 97,14 %
21.09.2017 13:54 19,8 C 24,4 C 18,3 C 61 % 0 lf 1019,1 hPa 0,0 l/m 2 min 0 min 664 W/m 10,5 km/h (2 Bft) 97,87 %
21.09.2017 13:56 19,8 C 24,4 C 18,3 C 61 % 0 lf 1019,0 hPa 0,0 l/m 2 min 0 min 663 W/m 10,5 km/h (2 Bft) 100,00 %
21.09.2017 13:58 19,8 C 26,1 C 18,3 C 62 % 0 lf 1019,0 hPa 0,0 l/m 2 min 0 min 663 W/m 14,6 km/h (3 Bft) 97,87 %
21.09.2017 14:00 19,8 C 25,6 C 18,3 C 63 % 0 lf 1019,0 hPa 0,0 l/m 2 min 0 min 662 W/m 14,6 km/h (3 Bft) 95,74 %
21.09.2017 14:02 19,8 C 24,4 C 18,3 C 63 % 0 lf 1019,0 hPa 0,0 l/m 2 min 0 min 836 W/m 12,6 km/h (3 Bft) 97,83 %
21.09.2017 14:04 19,8 C 25,0 C 18,3 C 64 % 0 lf 1018,9 hPa 0,0 l/m 2 min 0 min 469 W/m 10,5 km/h (2 Bft) 95,74 %
21.09.2017 14:06 19,8 C 25,0 C 18,3 C 63 % 0 lf 1019,0 hPa 0,0 l/m 2 min 0 min 501 W/m 12,6 km/h (3 Bft) 97,87 %
21.09.2017 14:08 19,8 C 23,9 C 18,3 C 64 % 0 lf 1019,0 hPa 0,0 l/m 2 min 0 min 540 W/m 14,6 km/h (3 Bft) 95,74 %
21.09.2017 14:10 19,8 C 23,3 C 18,3 C 63 % 0 lf 1018,9 hPa 0,0 l/m 2 min 0 min 545 W/m 10,5 km/h (2 Bft) 95,74 %
21.09.2017 14:12 19,8 C 23,3 C 18,3 C 63 % 0 lf 1018,9 hPa 0,0 l/m 2 min 0 min 510 W/m 10,5 km/h (2 Bft) 95,74 %
21.09.2017 14:14 19,8 C 24,4 C 18,3 C 64 % 0 lf 1018,9 hPa 0,0 l/m 2 min 0 min 482 W/m 10,5 km/h (2 Bft) 97,87 %
21.09.2017 14:16 19,8 C 24,4 C 18,3 C 64 % 0 lf 1018,9 hPa 0,0 l/m 2 min 0 min 524 W/m 16,7 km/h (3 Bft) 97,83 %
21.09.2017 14:18 19,7 C 23,3 C 18,3 C 61 % 0 lf 1018,9 hPa 0,0 l/m 2 min 0 min 514 W/m 18,8 km/h (3 Bft) 93,62 %
21.09.2017 14:20 19,7 C 23,3 C 18,3 C 62 % 0 lf 1018,9 hPa 0,0 l/m 2 min 0 min 506 W/m 16,7 km/h (3 Bft) 98,31 %
21.09.2017 14:22 19,6 C 23,9 C 18,3 C 62 % 0 lf 1018,9 hPa 0,0 l/m 2 min 0 min 496 W/m 12,6 km/h (3 Bft) 94,29 %
21.09.2017 14:24 19,6 C 23,9 C 18,3 C 62 % 0 lf 1018,9 hPa 0,0 l/m 2 min 0 min 504 W/m 16,7 km/h (3 Bft) 95,74 %
21.09.2017 14:26 19,6 C 24,4 C 18,3 C 63 % 0 lf 1018,8 hPa 0,0 l/m 2 min 0 min 507 W/m 14,6 km/h (3 Bft) 95,65 %
21.09.2017 14:28 19,6 C 24,4 C 18,3 C 62 % 0 lf 1018,8 hPa 0,0 l/m 2 min 0 min 496 W/m 10,5 km/h (2 Bft) 95,74 %
21.09.2017 14:30 19,6 C 24,4 C 18,3 C 64 % 0 lf 1018,9 hPa 0,0 l/m 2 min 0 min 483 W/m 12,6 km/h (3 Bft) 95,74 %
21.09.2017 14:32 19,6 C 26,1 C 18,3 C 64 % 0 lf 1018,9 hPa 0,0 l/m 2 min 0 min 461 W/m 16,7 km/h (3 Bft) 95,74 %
21.09.2017 14:34 19,7 C 25,6 C 18,3 C 65 % 0 lf 1018,8 hPa 0,0 l/m 2 min 0 min 445 W/m 14,6 km/h (3 Bft) 95,74 %
21.09.2017 14:36 19,7 C 23,9 C 18,3 C 63 % 0 lf 1018,9 hPa 0,0 l/m 2 min 0 min 440 W/m 16,7 km/h (3 Bft) 93,62 %
21.09.2017 14:38 19,7 C 24,4 C 18,3 C 63 % 0 lf 1018,8 hPa 0,0 l/m 2 min 0 min 437 W/m 12,6 km/h (3 Bft) 95,65 %
21.09.2017 14:40 19,7 C 25,6 C 18,3 C 64 % 0 lf 1018,8 hPa 0,0 l/m 2 min 0 min 461 W/m 14,6 km/h (3 Bft) 97,87 %
21.09.2017 14:42 19,7 C 25,0 C 18,9 C 64 % 0 lf 1018,8 hPa 0,0 l/m 2 min 0 min 456 W/m 12,6 km/h (3 Bft) 93,62 %
21.09.2017 14:44 19,8 C 24,4 C 18,3 C 64 % 0 lf 1018,8 hPa 0,0 l/m 2 min 0 min 449 W/m 10,5 km/h (2 Bft) 95,74 %
21.09.2017 14:46 19,8 C 24,4 C 18,3 C 63 % 0 lf 1018,7 hPa 0,0 l/m 2 min 0 min 415 W/m 14,6 km/h (3 Bft) 93,62 %
21.09.2017 14:48 19,8 C 23,3 C 18,3 C 62 % 0 lf 1018,7 hPa 0,0 l/m 2 min 0 min 418 W/m 18,8 km/h (3 Bft) 97,87 %
21.09.2017 14:50 19,8 C 23,3 C 18,3 C 63 % 0 lf 1018,7 hPa 0,0 l/m 2 min 0 min 432 W/m 18,8 km/h (3 Bft) 97,83 %
21.09.2017 14:52 19,8 C 22,8 C 18,3 C 62 % 0 lf 1018,7 hPa 0,0 l/m 2 min 0 min 407 W/m 14,6 km/h (3 Bft) 95,74 %
21.09.2017 14:54 19,7 C 22,8 C 18,3 C 62 % 0 lf 1018,7 hPa 0,0 l/m 2 min 0 min 413 W/m 10,5 km/h (2 Bft) 97,87 %
21.09.2017 14:56 19,7 C 23,3 C 18,3 C 63 % 0 lf 1018,7 hPa 0,0 l/m 2 min 0 min 460 W/m 4,2 km/h (1 Bft) 97,87 %
21.09.2017 14:58 19,7 C 23,9 C 18,3 C 62 % 0 lf 1018,6 hPa 0,0 l/m 2 min 0 min 497 W/m 8,4 km/h (2 Bft) 93,62 %
21.09.2017 15:00 19,7 C 25,0 C 18,9 C 64 % 0 lf 1018,7 hPa 0,0 l/m 2 min 0 min 533 W/m 16,7 km/h (3 Bft) 93,62 %
21.09.2017 15:02 19,7 C 24,4 C 18,9 C 64 % 0 lf 1018,6 hPa 0,0 l/m 2 min 0 min 554 W/m 10,5 km/h (2 Bft) 93,48 %
21.09.2017 15:04 19,7 C 24,4 C 18,9 C 63 % 0 lf 1018,6 hPa 0,0 l/m 2 min 0 min 556 W/m 6,3 km/h (2 Bft) 93,62 %
21.09.2017 15:06 19,8 C 25,6 C 18,9 C 63 % 0 lf 1018,6 hPa 0,0 l/m 2 min 0 min 562 W/m 14,6 km/h (3 Bft) 95,74 %
21.09.2017 15:08 19,8 C 26,1 C 18,9 C 64 % 0 lf 1018,6 hPa 0,0 l/m 2 min 0 min 574 W/m 16,7 km/h (3 Bft) 95,74 %
21.09.2017 15:10 19,8 C 25,6 C 18,9 C 63 % 0 lf 1018,6 hPa 0,0 l/m 2 min 0 min 574 W/m 16,7 km/h (3 Bft) 95,74 %
21.09.2017 15:12 19,9 C 25,0 C 18,9 C 63 % 0 lf 1018,6 hPa 0,0 l/m 2 min 0 min 577 W/m 10,5 km/h (2 Bft) 93,62 %
21.09.2017 15:14 19,9 C 25,6 C 19,4 C 65 % 0 lf 1018,6 hPa 0,0 l/m 2 min 0 min 553 W/m 12,6 km/h (3 Bft) 97,83 %
21.09.2017 15:16 19,9 C 25,0 C 19,4 C 65 % 0 lf 1018,6 hPa 0,0 l/m 2 min 0 min 553 W/m 10,5 km/h (2 Bft) 93,62 %
21.09.2017 15:18 19,9 C 23,9 C 19,4 C 63 % 0 lf 1018,5 hPa 0,0 l/m 2 min 0 min 539 W/m 8,4 km/h (2 Bft) 91,49 %
21.09.2017 15:20 19,9 C 25,0 C 19,4 C 64 % 0 lf 1018,5 hPa 0,0 l/m 2 min 0 min 521 W/m 12,6 km/h (3 Bft) 96,61 %
21.09.2017 15:22 20,0 C 25,0 C 18,9 C 63 % 0 lf 1018,5 hPa 0,0 l/m 2 min 0 min 502 W/m 12,6 km/h (3 Bft) 94,29 %
21.09.2017 15:24 20,0 C 25,0 C 18,9 C 62 % 0 lf 1018,5 hPa 0,0 l/m 2 min 0 min 498 W/m 10,5 km/h (2 Bft) 95,65 %
21.09.2017 15:26 20,0 C 24,4 C 19,4 C 62 % 0 lf 1018,5 hPa 0,0 l/m 2 min 0 min 507 W/m 8,4 km/h (2 Bft) 95,74 %
21.09.2017 15:28 20,1 C 25,0 C 19,4 C 63 % 0 lf 1018,5 hPa 0,0 l/m 2 min 0 min 489 W/m 8,4 km/h (2 Bft) 95,74 %
21.09.2017 15:30 20,1 C 25,6 C 19,4 C 63 % 0 lf 1018,5 hPa 0,0 l/m 2 min 0 min 497 W/m 10,5 km/h (2 Bft) 97,87 %
21.09.2017 15:32 20,1 C 25,0 C 19,4 C 62 % 0 lf 1018,4 hPa 0,0 l/m 2 min 0 min 473 W/m 16,7 km/h (3 Bft) 95,74 %
21.09.2017 15:34 20,1 C 23,3 C 18,9 C 62 % 0 lf 1018,5 hPa 0,0 l/m 2 min 0 min 407 W/m 10,5 km/h (2 Bft) 97,87 %
21.09.2017 15:36 20,1 C 22,8 C 18,9 C 62 % 0 lf 1018,4 hPa 0,0 l/m 2 min 0 min 566 W/m 8,4 km/h (2 Bft) 97,83 %
21.09.2017 15:38 20,1 C 22,8 C 18,9 C 62 % 0 lf 1018,4 hPa 0,0 l/m 2 min 0 min 563 W/m 14,6 km/h (3 Bft) 97,87 %
21.09.2017 15:40 20,0 C 22,2 C 18,9 C 62 % 0 lf 1018,3 hPa 0,0 l/m 2 min 0 min 646 W/m 16,7 km/h (3 Bft) 100,00 %
21.09.2017 15:42 20,0 C 22,8 C 18,9 C 62 % 0 lf 1018,3 hPa 0,0 l/m 2 min 0 min 650 W/m 16,7 km/h (3 Bft) 97,87 %
21.09.2017 15:44 20,0 C 22,2 C 18,3 C 62 % 0 lf 1018,3 hPa 0,0 l/m 2 min 0 min 554 W/m 14,6 km/h (3 Bft) 100,00 %
21.09.2017 15:46 19,9 C 22,8 C 18,3 C 62 % 0 lf 1018,4 hPa 0,0 l/m 2 min 0 min 720 W/m 10,5 km/h (2 Bft) 97,87 %
21.09.2017 15:48 19,9 C 22,2 C 18,3 C 61 % 0 lf 1018,3 hPa 0,0 l/m 2 min 0 min 351 W/m 8,4 km/h (2 Bft) 97,83 %
21.09.2017 15:50 19,9 C 22,8 C 18,3 C 63 % 0 lf 1018,3 hPa 0,0 l/m 2 min 0 min 364 W/m 8,4 km/h (2 Bft) 100,00 %
21.09.2017 15:52 19,9 C 23,3 C 18,3 C 64 % 0 lf 1018,4 hPa 0,0 l/m 2 min 0 min 379 W/m 10,5 km/h (2 Bft) 100,00 %
21.09.2017 15:54 19,8 C 22,8 C 18,3 C 62 % 0 lf 1018,4 hPa 0,0 l/m 2 min 0 min 440 W/m 10,5 km/h (2 Bft) 100,00 %
21.09.2017 15:56 19,8 C 22,8 C 18,3 C 62 % 0 lf 1018,3 hPa 0,0 l/m 2 min 0 min 412 W/m 12,6 km/h (3 Bft) 95,74 %
21.09.2017 15:58 19,8 C 22,8 C 18,3 C 63 % 0 lf 1018,3 hPa 0,0 l/m 2 min 0 min 392 W/m 10,5 km/h (2 Bft) 100,00 %
21.09.2017 16:00 19,8 C 22,8 C 18,3 C 62 % 0 lf 1018,3 hPa 0,0 l/m 2 min 0 min 526 W/m 14,6 km/h (3 Bft) 100,00 %
21.09.2017 16:02 19,8 C 23,3 C 18,3 C 62 % 0 lf 1018,3 hPa 0,0 l/m 2 min 0 min 523 W/m 16,7 km/h (3 Bft) 95,74 %
21.09.2017 16:04 19,8 C 23,9 C 18,9 C 62 % 0 lf 1018,2 hPa 0,0 l/m 2 min 0 min 519 W/m 16,7 km/h (3 Bft) 100,00 %
21.09.2017 16:06 19,7 C 23,9 C 18,9 C 61 % 0 lf 1018,3 hPa 0,0 l/m 2 min 0 min 515 W/m 20,9 km/h (4 Bft) 95,74 %
21.09.2017 16:08 19,8 C 23,3 C 18,9 C 61 % 0 lf 1018,3 hPa 0,0 l/m 2 min 0 min 512 W/m 16,7 km/h (3 Bft) 97,87 %
21.09.2017 16:10 19,7 C 23,3 C 18,9 C 61 % 0 lf 1018,2 hPa 0,0 l/m 2 min 0 min 508 W/m 18,8 km/h (3 Bft) 97,83 %
21.09.2017 16:12 19,8 C 23,3 C 18,9 C 61 % 0 lf 1018,4 hPa 0,0 l/m 2 min 0 min 504 W/m 16,7 km/h (3 Bft) 95,74 %
21.09.2017 16:14 19,8 C 23,9 C 18,9 C 61 % 0 lf 1018,3 hPa 0,0 l/m 2 min 0 min 500 W/m 16,7 km/h (3 Bft) 97,87 %
21.09.2017 16:16 19,8 C 24,4 C 18,9 C 61 % 0 lf 1018,3 hPa 0,0 l/m 2 min 0 min 497 W/m 10,5 km/h (2 Bft) 97,87 %
21.09.2017 16:18 19,8 C 23,9 C 18,9 C 61 % 0 lf 1018,3 hPa 0,0 l/m 2 min 0 min 493 W/m 10,5 km/h (2 Bft) 95,74 %
21.09.2017 16:20 19,8 C 23,9 C 18,9 C 61 % 0 lf 1018,2 hPa 0,0 l/m 2 min 0 min 489 W/m 16,7 km/h (3 Bft) 97,87 %
21.09.2017 16:22 19,9 C 23,3 C 18,9 C 61 % 0 lf 1018,2 hPa 0,0 l/m 2 min 0 min 485 W/m 8,4 km/h (2 Bft) 95,65 %
21.09.2017 16:24 19,9 C 23,3 C 18,9 C 62 % 0 lf 1018,3 hPa 0,0 l/m 2 min 0 min 402 W/m 14,6 km/h (3 Bft) 95,74 %
21.09.2017 16:26 19,9 C 22,8 C 18,9 C 61 % 0 lf 1018,2 hPa 0,0 l/m 2 min 0 min 420 W/m 16,7 km/h (3 Bft) 89,36 %
21.09.2017 16:28 19,9 C 23,9 C 18,9 C 62 % 0 lf 1018,2 hPa 0,0 l/m 2 min 0 min 441 W/m 14,6 km/h (3 Bft) 93,62 %
21.09.2017 16:30 19,9 C 23,9 C 18,9 C 61 % 0 lf 1018,3 hPa 0,0 l/m 2 min 0 min 445 W/m 10,5 km/h (2 Bft) 95,74 %
21.09.2017 16:32 20,0 C 23,9 C 18,9 C 61 % 0 lf 1018,2 hPa 0,0 l/m 2 min 0 min 439 W/m 8,4 km/h (2 Bft) 95,74 %
21.09.2017 16:34 20,0 C 23,9 C 18,9 C 62 % 0 lf 1018,3 hPa 0,0 l/m 2 min 0 min 428 W/m 16,7 km/h (3 Bft) 96,23 %
21.09.2017 16:36 20,1 C 23,9 C 18,9 C 61 % 0 lf 1018,1 hPa 0,0 l/m 2 min 0 min 415 W/m 14,6 km/h (3 Bft) 95,74 %
21.09.2017 16:38 20,1 C 23,9 C 18,3 C 61 % 0 lf 1018,1 hPa 0,0 l/m 2 min 0 min 405 W/m 18,8 km/h (3 Bft) 95,74 %
21.09.2017 16:40 20,1 C 22,8 C 18,3 C 61 % 0 lf 1018,2 hPa 0,0 l/m 2 min 0 min 388 W/m 16,7 km/h (3 Bft) 95,74 %
21.09.2017 16:42 20,1 C 22,8 C 18,3 C 61 % 0 lf 1018,1 hPa 0,0 l/m 2 min 0 min 359 W/m 18,8 km/h (3 Bft) 95,74 %
21.09.2017 16:44 20,1 C 22,2 C 18,3 C 61 % 0 lf 1018,0 hPa 0,0 l/m 2 min 0 min 346 W/m 12,6 km/h (3 Bft) 95,65 %
21.09.2017 16:46 20,1 C 21,7 C 18,3 C 61 % 0 lf 1018,0 hPa 0,0 l/m 2 min 0 min 322 W/m 12,6 km/h (3 Bft) 91,49 %
21.09.2017 16:48 20,0 C 21,1 C 18,3 C 61 % 0 lf 1018,0 hPa 0,0 l/m 2 min 0 min 304 W/m 18,8 km/h (3 Bft) 93,62 %
21.09.2017 16:50 20,0 C 21,7 C 17,8 C 62 % 0 lf 1018,0 hPa 0,0 l/m 2 min 0 min 288 W/m 10,5 km/h (2 Bft) 95,74 %
21.09.2017 16:52 20,0 C 22,2 C 17,8 C 62 % 0 lf 1018,0 hPa 0,0 l/m 2 min 0 min 258 W/m 8,4 km/h (2 Bft) 93,62 %
21.09.2017 16:54 20,0 C 21,1 C 17,8 C 62 % 0 lf 1018,0 hPa 0,0 l/m 0 min 0 min 187 W/m 16,7 km/h (3 Bft) 95,74 %
21.09.2017 16:56 20,0 C 20,6 C 17,8 C 62 % 0 lf 1018,0 hPa 0,0 l/m 0 min 0 min 170 W/m 14,6 km/h (3 Bft) 95,65 %
21.09.2017 16:58 19,9 C 20,0 C 17,2 C 62 % 0 lf 1018,0 hPa 0,0 l/m 0 min 0 min 183 W/m 10,5 km/h (2 Bft) 97,87 %
21.09.2017 17:00 19,9 C 20,0 C 17,2 C 62 % 0 lf 1018,0 hPa 0,0 l/m 0 min 0 min 175 W/m 12,6 km/h (3 Bft) 97,87 %
21.09.2017 17:02 19,8 C 20,0 C 17,2 C 62 % 0 lf 1018,0 hPa 0,0 l/m 2 min 0 min 190 W/m 14,6 km/h (3 Bft) 94,29 %
21.09.2017 17:04 19,8 C 20,6 C 17,2 C 62 % 0 lf 1018,0 hPa 0,0 l/m 2 min 0 min 237 W/m 10,5 km/h (2 Bft) 98,31 %
21.09.2017 17:06 19,8 C 20,0 C 17,2 C 62 % 0 lf 1018,0 hPa 0,0 l/m 2 min 0 min 389 W/m 8,4 km/h (2 Bft) 100,00 %
21.09.2017 17:08 19,8 C 20,0 C 17,2 C 62 % 0 lf 1018,0 hPa 0,0 l/m 2 min 0 min 384 W/m 6,3 km/h (2 Bft) 98,28 %
21.09.2017 17:10 19,8 C 20,0 C 17,2 C 62 % 0 lf 1017,9 hPa 0,0 l/m 2 min 0 min 379 W/m 6,3 km/h (2 Bft) 97,87 %
21.09.2017 17:12 19,7 C 20,0 C 17,2 C 63 % 0 lf 1017,9 hPa 0,0 l/m 2 min 0 min 374 W/m 8,4 km/h (2 Bft) 95,74 %
21.09.2017 17:14 19,7 C 20,0 C 17,2 C 63 % 0 lf 1018,0 hPa 0,0 l/m 2 min 0 min 369 W/m 8,4 km/h (2 Bft) 100,00 %
21.09.2017 17:16 19,7 C 20,0 C 17,2 C 63 % 0 lf 1017,9 hPa 0,0 l/m 2 min 0 min 253 W/m 10,5 km/h (2 Bft) 97,87 %
21.09.2017 17:18 19,7 C 20,0 C 17,2 C 63 % 0 lf 1018,0 hPa 0,0 l/m 2 min 0 min 226 W/m 10,5 km/h (2 Bft) 100,00 %
21.09.2017 17:20 19,7 C 20,0 C 17,2 C 63 % 0 lf 1018,0 hPa 0,0 l/m 2 min 0 min 204 W/m 10,5 km/h (2 Bft) 100,00 %
21.09.2017 17:22 19,7 C 19,4 C 17,2 C 63 % 0 lf 1017,9 hPa 0,0 l/m 2 min 0 min 174 W/m 12,6 km/h (3 Bft) 100,00 %
21.09.2017 17:24 19,6 C 19,4 C 17,2 C 63 % 0 lf 1017,9 hPa 0,0 l/m 2 min 0 min 162 W/m 10,5 km/h (2 Bft) 100,00 %
21.09.2017 17:26 19,6 C 19,4 C 17,2 C 62 % 0 lf 1018,0 hPa 0,0 l/m 2 min 0 min 198 W/m 10,5 km/h (2 Bft) 100,00 %
21.09.2017 17:28 19,6 C 19,4 C 17,2 C 62 % 0 lf 1018,0 hPa 0,0 l/m 2 min 0 min 203 W/m 10,5 km/h (2 Bft) 100,00 %
21.09.2017 17:30 19,6 C 19,4 C 17,2 C 63 % 0 lf 1017,9 hPa 0,0 l/m 2 min 0 min 200 W/m 8,4 km/h (2 Bft) 97,87 %
21.09.2017 17:32 19,6 C 19,4 C 17,2 C 63 % 0 lf 1018,0 hPa 0,0 l/m 2 min 0 min 200 W/m 4,2 km/h (1 Bft) 95,65 %
21.09.2017 17:34 19,6 C 19,4 C 17,2 C 63 % 0 lf 1018,0 hPa 0,0 l/m 2 min 0 min 183 W/m 8,4 km/h (2 Bft) 95,74 %
21.09.2017 17:36 19,6 C 19,4 C 16,7 C 64 % 0 lf 1018,0 hPa 0,0 l/m 2 min 0 min 170 W/m 8,4 km/h (2 Bft) 97,87 %
21.09.2017 17:38 19,5 C 18,9 C 17,2 C 64 % 0 lf 1018,0 hPa 0,0 l/m 2 min 0 min 164 W/m 8,4 km/h (2 Bft) 97,87 %
21.09.2017 17:40 19,5 C 18,9 C 16,7 C 64 % 0 lf 1017,9 hPa 0,0 l/m 2 min 0 min 171 W/m 8,4 km/h (2 Bft) 97,87 %
21.09.2017 17:42 19,5 C 19,4 C 16,7 C 65 % 0 lf 1017,9 hPa 0,0 l/m 2 min 0 min 177 W/m 10,5 km/h (2 Bft) 95,65 %
21.09.2017 17:44 19,5 C 19,4 C 16,7 C 65 % 0 lf 1017,9 hPa 0,0 l/m 2 min 0 min 178 W/m 10,5 km/h (2 Bft) 97,87 %
21.09.2017 17:46 19,4 C 19,4 C 16,7 C 64 % 0 lf 1017,9 hPa 0,0 l/m 2 min 0 min 169 W/m 8,4 km/h (2 Bft) 97,87 %
21.09.2017 17:48 19,4 C 19,4 C 16,7 C 64 % 0 lf 1017,9 hPa 0,0 l/m 2 min 0 min 164 W/m 16,7 km/h (3 Bft) 91,49 %
21.09.2017 17:50 19,4 C 19,4 C 16,7 C 64 % 0 lf 1018,0 hPa 0,0 l/m 2 min 0 min 182 W/m 10,5 km/h (2 Bft) 97,87 %
21.09.2017 17:52 19,4 C 18,9 C 16,7 C 64 % 0 lf 1017,9 hPa 0,0 l/m 2 min 0 min 193 W/m 10,5 km/h (2 Bft) 95,74 %
21.09.2017 17:54 19,4 C 19,4 C 16,7 C 64 % 0 lf 1017,9 hPa 0,0 l/m 2 min 0 min 181 W/m 10,5 km/h (2 Bft) 97,83 %
21.09.2017 17:56 19,4 C 18,9 C 16,7 C 64 % 0 lf 1017,9 hPa 0,0 l/m 2 min 0 min 176 W/m 14,6 km/h (3 Bft) 89,36 %
21.09.2017 17:58 19,4 C 18,9 C 16,7 C 63 % 0 lf 1017,9 hPa 0,0 l/m 2 min 0 min 170 W/m 12,6 km/h (3 Bft) 95,74 %
21.09.2017 18:00 19,3 C 18,9 C 16,7 C 63 % 0 lf 1017,9 hPa 0,0 l/m 2 min 0 min 160 W/m 12,6 km/h (3 Bft) 93,62 %
21.09.2017 18:02 19,3 C 18,9 C 16,7 C 63 % 0 lf 1017,9 hPa 0,0 l/m 2 min 0 min 165 W/m 8,4 km/h (2 Bft) 95,74 %
21.09.2017 18:04 19,3 C 18,9 C 16,7 C 63 % 0 lf 1017,9 hPa 0,0 l/m 2 min 0 min 150 W/m 8,4 km/h (2 Bft) 93,62 %
21.09.2017 18:06 19,3 C 18,9 C 16,7 C 64 % 0 lf 1017,9 hPa 0,0 l/m 2 min 0 min 144 W/m 8,4 km/h (2 Bft) 95,65 %
21.09.2017 18:10 19,3 C 18,9 C 16,1 C 64 % 0 lf 1017,9 hPa 0,0 l/m 4 min 0 min 225 W/m 10,5 km/h (2 Bft) 92,94 %
21.09.2017 18:12 19,3 C 18,9 C 16,1 C 65 % 0 lf 1017,9 hPa 0,0 l/m 2 min 0 min 219 W/m 6,3 km/h (2 Bft) 95,74 %
21.09.2017 18:14 19,3 C 18,9 C 16,1 C 65 % 0 lf 1017,8 hPa 0,0 l/m 2 min 0 min 214 W/m 8,4 km/h (2 Bft) 97,87 %
21.09.2017 18:16 19,3 C 18,9 C 16,1 C 65 % 0 lf 1017,8 hPa 0,0 l/m 2 min 0 min 208 W/m 4,2 km/h (1 Bft) 95,74 %
21.09.2017 18:18 19,2 C 18,9 C 16,1 C 65 % 0 lf 1017,8 hPa 0,0 l/m 2 min 0 min 203 W/m 6,3 km/h (2 Bft) 97,92 %
21.09.2017 18:20 19,2 C 18,3 C 16,1 C 65 % 0 lf 1017,8 hPa 0,0 l/m 2 min 0 min 197 W/m 6,3 km/h (2 Bft) 97,87 %
21.09.2017 18:22 19,2 C 18,3 C 16,1 C 65 % 0 lf 1017,9 hPa 0,0 l/m 2 min 0 min 192 W/m 6,3 km/h (2 Bft) 97,87 %
21.09.2017 18:24 19,2 C 18,3 C 15,6 C 66 % 0 lf 1017,8 hPa 0,0 l/m 2 min 0 min 186 W/m 8,4 km/h (2 Bft) 97,87 %
21.09.2017 18:26 19,2 C 18,3 C 16,1 C 66 % 0 lf 1017,8 hPa 0,0 l/m 2 min 0 min 181 W/m 6,3 km/h (2 Bft) 97,87 %
21.09.2017 18:28 19,1 C 18,3 C 16,1 C 65 % 0 lf 1017,8 hPa 0,0 l/m 2 min 0 min 108 W/m 8,4 km/h (2 Bft) 97,87 %
21.09.2017 18:30 19,1 C 18,3 C 16,1 C 65 % 0 lf 1017,8 hPa 0,0 l/m 2 min 0 min 105 W/m 8,4 km/h (2 Bft) 95,65 %
21.09.2017 18:32 19,1 C 18,3 C 16,1 C 65 % 0 lf 1017,9 hPa 0,0 l/m 2 min 0 min 104 W/m 10,5 km/h (2 Bft) 93,62 %
21.09.2017 18:34 19,1 C 18,3 C 16,1 C 65 % 0 lf 1017,8 hPa 0,0 l/m 2 min 0 min 103 W/m 8,4 km/h (2 Bft) 97,87 %
21.09.2017 18:36 19,0 C 18,3 C 16,1 C 65 % 0 lf 1017,9 hPa 0,0 l/m 2 min 0 min 99 W/m 10,5 km/h (2 Bft) 95,74 %
21.09.2017 18:38 19,0 C 18,3 C 16,1 C 65 % 0 lf 1017,9 hPa 0,0 l/m 2 min 0 min 97 W/m 8,4 km/h (2 Bft) 97,87 %
21.09.2017 18:40 18,9 C 18,3 C 16,1 C 66 % 0 lf 1017,8 hPa 0,0 l/m 2 min 0 min 90 W/m 10,5 km/h (2 Bft) 95,74 %
21.09.2017 18:42 18,9 C 18,3 C 16,1 C 66 % 0 lf 1017,9 hPa 0,0 l/m 2 min 0 min 82 W/m 8,4 km/h (2 Bft) 97,83 %
21.09.2017 18:44 18,9 C 18,3 C 15,6 C 66 % 0 lf 1017,9 hPa 0,0 l/m 2 min 0 min 76 W/m 8,4 km/h (2 Bft) 97,87 %
21.09.2017 18:46 18,9 C 17,8 C 15,6 C 66 % 0 lf 1017,9 hPa 0,0 l/m 2 min 0 min 72 W/m 8,4 km/h (2 Bft) 95,74 %
21.09.2017 18:48 18,8 C 17,8 C 15,6 C 66 % 0 lf 1017,9 hPa 0,0 l/m 2 min 0 min 72 W/m 6,3 km/h (2 Bft) 95,74 %
21.09.2017 18:50 18,8 C 17,8 C 15,6 C 66 % 0 lf 1018,0 hPa 0,0 l/m 2 min 0 min 68 W/m 10,5 km/h (2 Bft) 95,74 %
21.09.2017 18:52 18,8 C 17,8 C 15,6 C 66 % 0 lf 1017,9 hPa 0,0 l/m 2 min 0 min 65 W/m 12,6 km/h (3 Bft) 95,74 %
21.09.2017 18:54 18,8 C 17,8 C 15,0 C 66 % 0 lf 1017,9 hPa 0,0 l/m 2 min 0 min 61 W/m 6,3 km/h (2 Bft) 97,83 %
21.09.2017 18:56 18,7 C 17,8 C 15,0 C 66 % 0 lf 1017,9 hPa 0,0 l/m 2 min 0 min 96 W/m 8,4 km/h (2 Bft) 95,74 %
21.09.2017 18:58 18,7 C 17,2 C 15,0 C 67 % 0 lf 1017,9 hPa 0,0 l/m 2 min 0 min 90 W/m 8,4 km/h (2 Bft) 95,74 %
21.09.2017 19:00 18,7 C 17,2 C 15,0 C 67 % 0 lf 1017,9 hPa 0,0 l/m 2 min 0 min 84 W/m 8,4 km/h (2 Bft) 97,87 %
21.09.2017 19:02 18,6 C 17,2 C 15,0 C 67 % 0 lf 1018,0 hPa 0,0 l/m 2 min 0 min 78 W/m 6,3 km/h (2 Bft) 95,74 %
21.09.2017 19:04 18,6 C 17,2 C 14,4 C 67 % 0 lf 1017,9 hPa 0,0 l/m 2 min 0 min 73 W/m 8,4 km/h (2 Bft) 97,87 %
21.09.2017 19:06 18,5 C 17,2 C 14,4 C 67 % 0 lf 1018,0 hPa 0,0 l/m 2 min 0 min 67 W/m 4,2 km/h (1 Bft) 97,83 %
21.09.2017 19:08 18,4 C 17,2 C 14,4 C 67 % 0 lf 1017,9 hPa 0,0 l/m 2 min 0 min 61 W/m 8,4 km/h (2 Bft) 95,74 %
21.09.2017 19:10 18,4 C 16,7 C 13,9 C 68 % 0 lf 1018,0 hPa 0,0 l/m 2 min 0 min 55 W/m 6,3 km/h (2 Bft) 91,49 %
21.09.2017 19:12 18,3 C 16,7 C 13,9 C 68 % 0 lf 1017,9 hPa 0,0 l/m 2 min 0 min 50 W/m 6,3 km/h (2 Bft) 95,74 %
21.09.2017 19:14 18,3 C 16,7 C 13,9 C 68 % 0 lf 1017,9 hPa 0,0 l/m 2 min 0 min 44 W/m 6,3 km/h (2 Bft) 95,74 %
21.09.2017 19:16 18,2 C 16,7 C 13,9 C 68 % 0 lf 1018,0 hPa 0,0 l/m 2 min 0 min 24 W/m 4,2 km/h (1 Bft) 97,87 %
21.09.2017 19:18 18,2 C 16,7 C 13,9 C 68 % 0 lf 1018,0 hPa 0,0 l/m 2 min 0 min 21 W/m 2,1 km/h (1 Bft) 93,48 %
21.09.2017 19:20 18,1 C 16,7 C 13,3 C 69 % 0 lf 1018,0 hPa 0,0 l/m 0 min 0 min 19 W/m 6,3 km/h (2 Bft) 95,74 %
21.09.2017 19:22 18,1 C 16,1 C 13,3 C 69 % 0 lf 1018,0 hPa 0,0 l/m 0 min 0 min 16 W/m 4,2 km/h (1 Bft) 95,74 %
21.09.2017 19:24 18,0 C 16,1 C 13,3 C 69 % 0 lf 1017,9 hPa 0,0 l/m 0 min 0 min 14 W/m 4,2 km/h (1 Bft) 95,74 %
21.09.2017 19:26 17,9 C 16,1 C 13,3 C 69 % 0 lf 1018,0 hPa 0,0 l/m 0 min 0 min 13 W/m 4,2 km/h (1 Bft) 93,62 %
21.09.2017 19:28 17,9 C 15,6 C 12,8 C 70 % 0 lf 1018,0 hPa 0,0 l/m 0 min 0 min 11 W/m 2,1 km/h (1 Bft) 97,83 %
21.09.2017 19:30 17,8 C 15,6 C 12,8 C 70 % 0 lf 1018,0 hPa 0,0 l/m 0 min 0 min 9 W/m 4,2 km/h (1 Bft) 97,87 %
21.09.2017 19:32 17,8 C 15,6 C 12,8 C 70 % 0 lf 1017,9 hPa 0,0 l/m 0 min 0 min 7 W/m 4,2 km/h (1 Bft) 97,87 %
21.09.2017 19:34 17,7 C 15,6 C 12,8 C 70 % 0 lf 1017,9 hPa 0,0 l/m 0 min 0 min 6 W/m 8,4 km/h (2 Bft) 95,74 %
21.09.2017 19:36 17,7 C 15,6 C 12,8 C 70 % 0 lf 1018,0 hPa 0,0 l/m 0 min 0 min 5 W/m 6,3 km/h (2 Bft) 95,74 %
21.09.2017 19:38 17,6 C 15,6 C 12,8 C 71 % 0 lf 1018,0 hPa 0,0 l/m 0 min 0 min 5 W/m 6,3 km/h (2 Bft) 97,87 %
21.09.2017 19:40 17,5 C 15,0 C 12,8 C 71 % 0 lf 1018,1 hPa 0,0 l/m 0 min 0 min 5 W/m 4,2 km/h (1 Bft) 97,83 %
21.09.2017 19:42 17,4 C 15,0 C 12,2 C 71 % 0 lf 1018,0 hPa 0,0 l/m 0 min 0 min 5 W/m 4,2 km/h (1 Bft) 95,74 %
21.09.2017 19:44 17,3 C 15,0 C 12,2 C 71 % 0 lf 1018,0 hPa 0,0 l/m 0 min 0 min 5 W/m 6,3 km/h (2 Bft) 97,87 %
21.09.2017 19:46 17,3 C 15,0 C 12,2 C 72 % 0 lf 1018,0 hPa 0,0 l/m 0 min 0 min 5 W/m 4,2 km/h (1 Bft) 95,74 %
21.09.2017 19:48 17,2 C 15,0 C 12,2 C 72 % 0 lf 1018,0 hPa 0,0 l/m 0 min 0 min 1 W/m 4,2 km/h (1 Bft) 97,87 %
21.09.2017 19:50 17,1 C 15,0 C 12,2 C 72 % 0 lf 1018,0 hPa 0,0 l/m 0 min 0 min 0 W/m 4,2 km/h (1 Bft) 97,87 %
21.09.2017 19:52 17,1 C 15,0 C 12,2 C 72 % 0 lf 1018,0 hPa 0,0 l/m 0 min 0 min 0 W/m 4,2 km/h (1 Bft) 95,65 %
21.09.2017 19:54 16,9 C 14,4 C 12,2 C 73 % 0 lf 1018,1 hPa 0,0 l/m 0 min 0 min 2 W/m 4,2 km/h (1 Bft) 93,62 %
21.09.2017 19:56 16,9 C 14,4 C 11,7 C 73 % 0 lf 1018,0 hPa 0,0 l/m 0 min 0 min 5 W/m 4,2 km/h (1 Bft) 95,74 %
21.09.2017 19:58 16,8 C 14,4 C 11,7 C 74 % 0 lf 1018,0 hPa 0,0 l/m 0 min 0 min 0 W/m 4,2 km/h (1 Bft) 97,87 %
21.09.2017 20:00 16,7 C 13,9 C 11,7 C 74 % 0 lf 1018,0 hPa 0,0 l/m 0 min 0 min 0 W/m 4,2 km/h (1 Bft) 97,87 %
21.09.2017 20:02 16,6 C 13,9 C 11,7 C 74 % 0 lf 1018,0 hPa 0,0 l/m 0 min 0 min 0 W/m 4,2 km/h (1 Bft) 97,87 %
21.09.2017 20:04 16,6 C 13,9 C 11,7 C 74 % 0 lf 1018,0 hPa 0,0 l/m 0 min 0 min 5 W/m 4,2 km/h (1 Bft) 97,83 %
21.09.2017 20:06 16,5 C 13,9 C 11,7 C 75 % 0 lf 1018,0 hPa 0,0 l/m 0 min 0 min 5 W/m 2,1 km/h (1 Bft) 100,00 %
21.09.2017 20:08 16,4 C 13,9 C 11,7 C 75 % 0 lf 1018,0 hPa 0,0 l/m 0 min 0 min 0 W/m 4,2 km/h (1 Bft) 97,87 %
21.09.2017 20:10 16,3 C 13,3 C 11,1 C 75 % 0 lf 1018,1 hPa 0,0 l/m 0 min 0 min 0 W/m 4,2 km/h (1 Bft) 97,87 %
21.09.2017 20:12 16,2 C 13,3 C 11,1 C 75 % 0 lf 1018,1 hPa 0,0 l/m 0 min 0 min 0 W/m 4,2 km/h (1 Bft) 97,87 %
21.09.2017 20:14 16,2 C 13,3 C 11,1 C 76 % 0 lf 1018,1 hPa 0,0 l/m 0 min 0 min 0 W/m 4,2 km/h (1 Bft) 97,87 %
21.09.2017 20:16 16,1 C 13,3 C 11,1 C 76 % 0 lf 1018,0 hPa 0,0 l/m 0 min 0 min 0 W/m 0,0 km/h (0 Bft) 97,83 %
21.09.2017 20:18 16,0 C 13,3 C 11,1 C 76 % 0 lf 1018,1 hPa 0,0 l/m 0 min 0 min 0 W/m 2,1 km/h (1 Bft) 95,74 %
21.09.2017 20:20 15,9 C 13,3 C 11,1 C 77 % 0 lf 1018,0 hPa 0,0 l/m 0 min 0 min 0 W/m 4,2 km/h (1 Bft) 95,74 %
21.09.2017 20:22 15,8 C 13,3 C 11,1 C 77 % 0 lf 1018,1 hPa 0,0 l/m 0 min 0 min 0 W/m 2,1 km/h (1 Bft) 97,87 %
21.09.2017 20:24 15,7 C 12,8 C 11,1 C 77 % 0 lf 1018,2 hPa 0,0 l/m 0 min 0 min 5 W/m 2,1 km/h (1 Bft) 96,61 %
21.09.2017 20:26 15,7 C 12,8 C 11,1 C 77 % 0 lf 1018,2 hPa 0,0 l/m 0 min 0 min 5 W/m 2,1 km/h (1 Bft) 97,14 %
21.09.2017 20:28 15,6 C 12,8 C 10,6 C 78 % 0 lf 1018,2 hPa 0,0 l/m 0 min 0 min 5 W/m 2,1 km/h (1 Bft) 97,87 %
21.09.2017 20:30 15,5 C 12,8 C 10,6 C 78 % 0 lf 1018,2 hPa 0,0 l/m 0 min 0 min 5 W/m 2,1 km/h (1 Bft) 97,87 %
21.09.2017 20:32 15,4 C 12,8 C 10,6 C 78 % 0 lf 1018,2 hPa 0,0 l/m 0 min 0 min 4 W/m 2,1 km/h (1 Bft) 93,62 %
21.09.2017 20:34 15,3 C 12,8 C 10,6 C 78 % 0 lf 1018,2 hPa 0,0 l/m 0 min 0 min 5 W/m 2,1 km/h (1 Bft) 97,62 %
21.09.2017 20:36 15,3 C 12,8 C 10,6 C 79 % 0 lf 1018,2 hPa 0,0 l/m 0 min 0 min 2 W/m 0,0 km/h (0 Bft) 98,00 %
21.09.2017 20:38 15,2 C 12,2 C 10,6 C 79 % 0 lf 1018,2 hPa 0,0 l/m 0 min 0 min 0 W/m 0,0 km/h (0 Bft) 97,96 %
21.09.2017 20:40 15,1 C 12,2 C 10,6 C 79 % 0 lf 1018,2 hPa 0,0 l/m 0 min 0 min 0 W/m 0,0 km/h (0 Bft) 97,87 %
21.09.2017 20:42 15,1 C 12,2 C 10,6 C 79 % 0 lf 1018,2 hPa 0,0 l/m 0 min 0 min 5 W/m 0,0 km/h (0 Bft) 91,49 %
21.09.2017 20:44 14,9 C 12,2 C 10,6 C 80 % 0 lf 1018,2 hPa 0,0 l/m 0 min 0 min 5 W/m 0,0 km/h (0 Bft) 95,74 %
21.09.2017 20:46 14,9 C 12,2 C 10,6 C 80 % 0 lf 1018,2 hPa 0,0 l/m 0 min 0 min 0 W/m 0,0 km/h (0 Bft) 95,74 %
21.09.2017 20:48 14,8 C 12,2 C 10,6 C 80 % 0 lf 1018,2 hPa 0,0 l/m 0 min 0 min 0 W/m 0,0 km/h (0 Bft) 97,14 %
21.09.2017 20:50 14,8 C 12,2 C 10,6 C 80 % 0 lf 1018,2 hPa 0,0 l/m 0 min 0 min 0 W/m 0,0 km/h (0 Bft) 96,43 %
21.09.2017 20:52 14,7 C 12,2 C 10,6 C 80 % 0 lf 1018,2 hPa 0,0 l/m 0 min 0 min 0 W/m 0,0 km/h (0 Bft) 95,74 %
21.09.2017 20:54 14,7 C 12,2 C 10,6 C 81 % 0 lf 1018,2 hPa 0,0 l/m 0 min 0 min 0 W/m 0,0 km/h (0 Bft) 96,00 %
21.09.2017 20:56 14,6 C 12,2 C 10,6 C 81 % 0 lf 1018,2 hPa 0,0 l/m 0 min 0 min 0 W/m 0,0 km/h (0 Bft) 93,62 %
21.09.2017 20:58 14,5 C 12,2 C 10,6 C 81 % 0 lf 1018,2 hPa 0,0 l/m 0 min 0 min 0 W/m 0,0 km/h (0 Bft) 95,74 %
21.09.2017 21:00 14,4 C 12,2 C 10,6 C 81 % 0 lf 1018,2 hPa 0,0 l/m 0 min 0 min 0 W/m 0,0 km/h (0 Bft) 94,29 %
21.09.2017 21:02 14,4 C 11,7 C 10,6 C 81 % 0 lf 1018,2 hPa 0,0 l/m 0 min 0 min 0 W/m 0,0 km/h (0 Bft) 95,74 %
21.09.2017 21:04 14,3 C 11,7 C 10,0 C 82 % 0 lf 1018,3 hPa 0,0 l/m 0 min 0 min 0 W/m 0,0 km/h (0 Bft) 96,36 %
21.09.2017 21:06 14,2 C 11,7 C 10,0 C 82 % 0 lf 1018,2 hPa 0,0 l/m 0 min 0 min 0 W/m 0,0 km/h (0 Bft) 95,74 %
21.09.2017 21:08 14,2 C 11,7 C 10,0 C 82 % 0 lf 1018,2 hPa 0,0 l/m 0 min 0 min 0 W/m 0,0 km/h (0 Bft) 95,65 %
21.09.2017 21:10 14,2 C 11,7 C 10,0 C 82 % 0 lf 1018,2 hPa 0,0 l/m 0 min 0 min 0 W/m 0,0 km/h (0 Bft) 95,74 %
21.09.2017 21:12 14,2 C 11,7 C 10,0 C 82 % 0 lf 1018,3 hPa 0,0 l/m 0 min 0 min 0 W/m 0,0 km/h (0 Bft) 95,74 %
21.09.2017 21:14 14,1 C 11,7 C 10,0 C 83 % 0 lf 1018,2 hPa 0,0 l/m 0 min 0 min 5 W/m 0,0 km/h (0 Bft) 95,74 %
21.09.2017 21:16 14,0 C 11,7 C 10,0 C 83 % 0 lf 1018,3 hPa 0,0 l/m 0 min 0 min 5 W/m 0,0 km/h (0 Bft) 94,00 %
21.09.2017 21:18 13,9 C 11,7 C 10,0 C 83 % 0 lf 1018,3 hPa 0,0 l/m 0 min 0 min 5 W/m 0,0 km/h (0 Bft) 97,37 %
21.09.2017 21:20 13,9 C 11,7 C 10,0 C 83 % 0 lf 1018,3 hPa 0,0 l/m 0 min 0 min 5 W/m 0,0 km/h (0 Bft) 92,31 %
21.09.2017 21:22 13,8 C 11,7 C 10,0 C 83 % 0 lf 1018,3 hPa 0,0 l/m 0 min 0 min 0 W/m 0,0 km/h (0 Bft) 97,87 %
21.09.2017 21:24 13,8 C 11,1 C 10,0 C 83 % 0 lf 1018,3 hPa 0,0 l/m 0 min 0 min 0 W/m 0,0 km/h (0 Bft) 98,00 %
21.09.2017 21:26 13,7 C 11,7 C 10,0 C 83 % 0 lf 1018,3 hPa 0,0 l/m 0 min 0 min 0 W/m 0,0 km/h (0 Bft) 97,87 %
21.09.2017 21:28 13,7 C 11,1 C 10,0 C 84 % 0 lf 1018,3 hPa 0,0 l/m 0 min 0 min 0 W/m 0,0 km/h (0 Bft) 97,87 %
21.09.2017 21:30 13,6 C 11,7 C 10,0 C 84 % 0 lf 1018,3 hPa 0,0 l/m 0 min 0 min 0 W/m 0,0 km/h (0 Bft) 95,74 %
21.09.2017 21:32 13,6 C 11,7 C 10,0 C 84 % 0 lf 1018,3 hPa 0,0 l/m 0 min 0 min 0 W/m 0,0 km/h (0 Bft) 97,37 %
21.09.2017 21:34 13,6 C 11,7 C 10,0 C 84 % 0 lf 1018,3 hPa 0,0 l/m 0 min 0 min 0 W/m 0,0 km/h (0 Bft) 93,62 %
21.09.2017 21:36 13,5 C 11,7 C 10,0 C 84 % 0 lf 1018,3 hPa 0,0 l/m 0 min 0 min 0 W/m 0,0 km/h (0 Bft) 100,00 %
21.09.2017 21:38 13,4 C 11,7 C 10,0 C 84 % 0 lf 1018,3 hPa 0,0 l/m 0 min 0 min 0 W/m 0,0 km/h (0 Bft) 97,87 %
21.09.2017 21:40 13,4 C 11,7 C 10,0 C 84 % 0 lf 1018,2 hPa 0,0 l/m 0 min 0 min 0 W/m 0,0 km/h (0 Bft) 95,74 %
21.09.2017 21:42 13,3 C 11,7 C 10,0 C 84 % 0 lf 1018,3 hPa 0,0 l/m 0 min 0 min 0 W/m 4,2 km/h (1 Bft) 97,87 %
21.09.2017 21:44 13,3 C 11,1 C 10,0 C 84 % 0 lf 1018,3 hPa 0,0 l/m 0 min 0 min 0 W/m 4,2 km/h (1 Bft) 95,74 %
21.09.2017 21:46 13,2 C 11,1 C 10,0 C 84 % 0 lf 1018,3 hPa 0,0 l/m 0 min 0 min 0 W/m 4,2 km/h (1 Bft) 100,00 %
21.09.2017 21:48 13,2 C 11,1 C 10,0 C 85 % 0 lf 1018,3 hPa 0,0 l/m 0 min 0 min 2 W/m 2,1 km/h (1 Bft) 100,00 %
21.09.2017 21:50 13,2 C 11,1 C 9,4 C 85 % 0 lf 1018,3 hPa 0,0 l/m 0 min 0 min 0 W/m 4,2 km/h (1 Bft) 95,74 %
21.09.2017 21:52 13,1 C 11,1 C 9,4 C 85 % 0 lf 1018,3 hPa 0,0 l/m 0 min 0 min 0 W/m 4,2 km/h (1 Bft) 100,00 %
21.09.2017 21:54 13,1 C 11,1 C 9,4 C 85 % 0 lf 1018,3 hPa 0,0 l/m 0 min 0 min 0 W/m 4,2 km/h (1 Bft) 97,83 %
21.09.2017 21:56 13,0 C 10,6 C 9,4 C 85 % 0 lf 1018,3 hPa 0,0 l/m 0 min 0 min 0 W/m 4,2 km/h (1 Bft) 100,00 %
21.09.2017 21:58 13,0 C 10,6 C 9,4 C 85 % 0 lf 1018,3 hPa 0,0 l/m 0 min 0 min 3 W/m 4,2 km/h (1 Bft) 100,00 %
21.09.2017 22:00 12,9 C 10,6 C 9,4 C 85 % 0 lf 1018,3 hPa 0,0 l/m 0 min 0 min 5 W/m 2,1 km/h (1 Bft) 100,00 %
21.09.2017 22:02 12,9 C 10,6 C 9,4 C 85 % 0 lf 1018,3 hPa 0,0 l/m 0 min 0 min 5 W/m 4,2 km/h (1 Bft) 100,00 %
21.09.2017 22:04 12,8 C 10,6 C 9,4 C 86 % 0 lf 1018,3 hPa 0,0 l/m 0 min 0 min 5 W/m 4,2 km/h (1 Bft) 100,00 %
21.09.2017 22:06 12,8 C 10,6 C 9,4 C 86 % 0 lf 1018,3 hPa 0,0 l/m 0 min 0 min 5 W/m 4,2 km/h (1 Bft) 100,00 %
21.09.2017 22:08 12,8 C 10,6 C 9,4 C 86 % 0 lf 1018,3 hPa 0,0 l/m 0 min 0 min 3 W/m 4,2 km/h (1 Bft) 100,00 %
21.09.2017 22:10 12,7 C 10,6 C 9,4 C 86 % 0 lf 1018,3 hPa 0,0 l/m 0 min 0 min 0 W/m 4,2 km/h (1 Bft) 96,36 %
21.09.2017 22:12 12,7 C 11,1 C 9,4 C 86 % 0 lf 1018,3 hPa 0,0 l/m 0 min 0 min 0 W/m 4,2 km/h (1 Bft) 100,00 %
21.09.2017 22:14 12,7 C 11,1 C 9,4 C 86 % 0 lf 1018,4 hPa 0,0 l/m 0 min 0 min 2 W/m 4,2 km/h (1 Bft) 100,00 %
21.09.2017 22:16 12,6 C 11,1 C 9,4 C 86 % 0 lf 1018,4 hPa 0,0 l/m 0 min 0 min 5 W/m 4,2 km/h (1 Bft) 100,00 %
21.09.2017 22:18 12,6 C 11,1 C 9,4 C 86 % 0 lf 1018,4 hPa 0,0 l/m 0 min 0 min 0 W/m 0,0 km/h (0 Bft) 97,92 %
21.09.2017 22:20 12,5 C 11,1 C 9,4 C 86 % 0 lf 1018,4 hPa 0,0 l/m 0 min 0 min 5 W/m 0,0 km/h (0 Bft) 100,00 %
21.09.2017 22:22 12,5 C 11,1 C 9,4 C 86 % 0 lf 1018,4 hPa 0,0 l/m 0 min 0 min 0 W/m 0,0 km/h (0 Bft) 100,00 %
21.09.2017 22:24 12,4 C 11,1 C 9,4 C 86 % 0 lf 1018,4 hPa 0,0 l/m 0 min 0 min 0 W/m 0,0 km/h (0 Bft) 100,00 %
21.09.2017 22:26 12,4 C 11,1 C 9,4 C 86 % 0 lf 1018,3 hPa 0,0 l/m 0 min 0 min 0 W/m 0,0 km/h (0 Bft) 97,87 %
21.09.2017 22:28 12,4 C 11,1 C 9,4 C 86 % 0 lf 1018,4 hPa 0,0 l/m 0 min 0 min 0 W/m 0,0 km/h (0 Bft) 100,00 %
21.09.2017 22:30 12,4 C 11,1 C 9,4 C 86 % 0 lf 1018,4 hPa 0,0 l/m 0 min 0 min 0 W/m 6,3 km/h (2 Bft) 95,83 %
21.09.2017 22:32 12,3 C 11,1 C 9,4 C 86 % 0 lf 1018,4 hPa 0,0 l/m 0 min 0 min 0 W/m 6,3 km/h (2 Bft) 100,00 %
21.09.2017 22:34 12,3 C 11,7 C 9,4 C 86 % 0 lf 1018,5 hPa 0,0 l/m 0 min 0 min 0 W/m 6,3 km/h (2 Bft) 100,00 %
21.09.2017 22:36 12,3 C 11,7 C 9,4 C 86 % 0 lf 1018,6 hPa 0,0 l/m 0 min 0 min 0 W/m 6,3 km/h (2 Bft) 100,00 %
21.09.2017 22:38 12,3 C 11,7 C 9,4 C 86 % 0 lf 1018,5 hPa 0,0 l/m 0 min 0 min 5 W/m 8,4 km/h (2 Bft) 100,00 %
21.09.2017 22:40 12,2 C 11,7 C 9,4 C 87 % 0 lf 1018,5 hPa 0,0 l/m 0 min 0 min 4 W/m 8,4 km/h (2 Bft) 95,74 %
21.09.2017 22:42 12,2 C 11,7 C 9,4 C 87 % 0 lf 1018,6 hPa 0,0 l/m 0 min 0 min 0 W/m 8,4 km/h (2 Bft) 98,11 %
21.09.2017 22:44 12,2 C 11,7 C 9,4 C 87 % 0 lf 1018,6 hPa 0,0 l/m 0 min 0 min 5 W/m 8,4 km/h (2 Bft) 97,87 %
21.09.2017 22:46 12,2 C 11,7 C 9,4 C 87 % 0 lf 1018,6 hPa 0,0 l/m 0 min 0 min 5 W/m 6,3 km/h (2 Bft) 97,87 %
21.09.2017 22:48 12,2 C 12,2 C 10,0 C 88 % 0 lf 1018,6 hPa 0,0 l/m 0 min 0 min 5 W/m 4,2 km/h (1 Bft) 97,37 %
21.09.2017 22:50 12,2 C 12,2 C 10,0 C 88 % 0 lf 1018,6 hPa 0,0 l/m 0 min 0 min 5 W/m 6,3 km/h (2 Bft) 98,00 %
21.09.2017 22:52 12,2 C 12,2 C 10,0 C 88 % 0 lf 1018,6 hPa 0,0 l/m 0 min 0 min 5 W/m 6,3 km/h (2 Bft) 95,74 %
21.09.2017 22:54 12,2 C 12,2 C 10,0 C 88 % 0 lf 1018,6 hPa 0,0 l/m 0 min 0 min 5 W/m 8,4 km/h (2 Bft) 95,74 %
21.09.2017 22:56 12,2 C 12,2 C 10,0 C 88 % 0 lf 1018,6 hPa 0,0 l/m 0 min 0 min 5 W/m 6,3 km/h (2 Bft) 97,87 %
21.09.2017 22:58 12,2 C 12,2 C 10,0 C 88 % 0 lf 1018,6 hPa 0,0 l/m 0 min 0 min 5 W/m 4,2 km/h (1 Bft) 95,74 %
21.09.2017 23:00 12,2 C 12,2 C 10,0 C 89 % 0 lf 1018,6 hPa 0,0 l/m 0 min 0 min 5 W/m 8,4 km/h (2 Bft) 97,67 %
21.09.2017 23:02 12,2 C 12,2 C 10,0 C 89 % 0 lf 1018,6 hPa 0,0 l/m 0 min 0 min 5 W/m 6,3 km/h (2 Bft) 98,00 %
21.09.2017 23:04 12,2 C 12,2 C 10,0 C 89 % 0 lf 1018,6 hPa 0,0 l/m 0 min 0 min 5 W/m 6,3 km/h (2 Bft) 97,96 %
21.09.2017 23:06 12,2 C 12,2 C 10,0 C 89 % 0 lf 1018,6 hPa 0,0 l/m 0 min 0 min 5 W/m 6,3 km/h (2 Bft) 97,87 %
21.09.2017 23:08 12,2 C 12,2 C 10,6 C 89 % 0 lf 1018,5 hPa 0,0 l/m 0 min 0 min 5 W/m 6,3 km/h (2 Bft) 93,62 %
21.09.2017 23:10 12,2 C 12,2 C 10,6 C 89 % 0 lf 1018,6 hPa 0,0 l/m 0 min 0 min 5 W/m 8,4 km/h (2 Bft) 95,92 %
21.09.2017 23:12 12,2 C 12,2 C 10,6 C 89 % 0 lf 1018,6 hPa 0,0 l/m 0 min 0 min 5 W/m 8,4 km/h (2 Bft) 97,22 %
21.09.2017 23:14 12,2 C 12,2 C 10,6 C 89 % 0 lf 1018,6 hPa 0,0 l/m 0 min 0 min 5 W/m 10,5 km/h (2 Bft) 97,92 %
21.09.2017 23:16 12,2 C 12,2 C 10,6 C 89 % 0 lf 1018,6 hPa 0,0 l/m 0 min 0 min 5 W/m 6,3 km/h (2 Bft) 94,44 %
21.09.2017 23:18 12,2 C 11,7 C 10,0 C 89 % 0 lf 1018,5 hPa 0,0 l/m 0 min 0 min 5 W/m 8,4 km/h (2 Bft) 95,74 %
21.09.2017 23:20 12,2 C 11,7 C 10,0 C 89 % 0 lf 1018,5 hPa 0,0 l/m 0 min 0 min 5 W/m 8,4 km/h (2 Bft) 89,36 %
21.09.2017 23:22 12,2 C 11,7 C 10,0 C 89 % 0 lf 1018,6 hPa 0,0 l/m 0 min 0 min 5 W/m 8,4 km/h (2 Bft) 97,56 %
21.09.2017 23:24 12,2 C 12,2 C 10,0 C 89 % 0 lf 1018,6 hPa 0,0 l/m 0 min 0 min 5 W/m 8,4 km/h (2 Bft) 93,75 %
21.09.2017 23:26 12,2 C 11,7 C 10,0 C 89 % 0 lf 1018,6 hPa 0,0 l/m 0 min 0 min 5 W/m 8,4 km/h (2 Bft) 94,55 %
21.09.2017 23:28 12,2 C 11,7 C 10,0 C 90 % 0 lf 1018,6 hPa 0,0 l/m 0 min 0 min 5 W/m 8,4 km/h (2 Bft) 94,74 %
21.09.2017 23:30 12,2 C 11,7 C 10,0 C 90 % 0 lf 1018,6 hPa 0,0 l/m 0 min 0 min 5 W/m 8,4 km/h (2 Bft) 95,65 %
21.09.2017 23:32 12,2 C 11,7 C 10,0 C 90 % 0 lf 1018,6 hPa 0,0 l/m 0 min 0 min 5 W/m 6,3 km/h (2 Bft) 91,84 %
21.09.2017 23:34 12,2 C 11,7 C 10,0 C 90 % 0 lf 1018,6 hPa 0,0 l/m 0 min 0 min 5 W/m 10,5 km/h (2 Bft) 91,67 %
21.09.2017 23:36 12,2 C 12,2 C 10,0 C 90 % 0 lf 1018,6 hPa 0,0 l/m 0 min 0 min 5 W/m 6,3 km/h (2 Bft) 93,62 %
21.09.2017 23:38 12,2 C 12,2 C 10,6 C 90 % 0 lf 1018,6 hPa 0,0 l/m 0 min 0 min 5 W/m 10,5 km/h (2 Bft) 91,49 %
21.09.2017 23:40 12,2 C 12,2 C 10,6 C 90 % 0 lf 1018,6 hPa 0,0 l/m 0 min 0 min 5 W/m 6,3 km/h (2 Bft) 91,30 %
21.09.2017 23:42 12,2 C 12,2 C 10,6 C 90 % 0 lf 1018,6 hPa 0,0 l/m 0 min 0 min 5 W/m 8,4 km/h (2 Bft) 95,74 %
21.09.2017 23:44 12,2 C 12,2 C 10,6 C 90 % 0 lf 1018,6 hPa 0,0 l/m 0 min 0 min 5 W/m 8,4 km/h (2 Bft) 93,18 %
21.09.2017 23:46 12,2 C 12,2 C 10,6 C 90 % 0 lf 1018,7 hPa 0,0 l/m 0 min 0 min 0 W/m 8,4 km/h (2 Bft) 94,00 %
21.09.2017 23:48 12,2 C 12,2 C 10,6 C 90 % 0 lf 1018,7 hPa 0,0 l/m 0 min 0 min 0 W/m 6,3 km/h (2 Bft) 93,75 %
21.09.2017 23:50 12,2 C 11,7 C 10,6 C 90 % 0 lf 1018,7 hPa 0,0 l/m 0 min 0 min 0 W/m 6,3 km/h (2 Bft) 89,36 %
21.09.2017 23:52 12,2 C 11,7 C 10,6 C 90 % 0 lf 1018,7 hPa 0,0 l/m 0 min 0 min 0 W/m 8,4 km/h (2 Bft) 95,65 %
21.09.2017 23:54 12,2 C 11,7 C 10,6 C 90 % 0 lf 1018,7 hPa 0,0 l/m 0 min 0 min 0 W/m 8,4 km/h (2 Bft) 93,02 %
21.09.2017 23:56 12,2 C 11,7 C 10,0 C 90 % 0 lf 1018,7 hPa 0,0 l/m 0 min 0 min 0 W/m 8,4 km/h (2 Bft) 92,00 %
21.09.2017 23:58 12,2 C 11,7 C 10,0 C 90 % 0 lf 1018,7 hPa 0,0 l/m 0 min 0 min 0 W/m 8,4 km/h (2 Bft) 89,36 %
_ Min-Zeit 07:28 04:27 05:16 13:38 00:00 18:14 - - - - 01:04 06:05
Minimum _ 8,2 C 7,8 C 6,1 C 61 % 0 lf 1017,8 hPa - - - - 0,0 km/h (0 Bft) 75,44 %
_ Max-Zeit 15:28 13:26 12:10 08:32 02:48 09:58 07:58 12:10 00:00 14:02 16:06 01:08
Maximum _ 20,1 C 28,9 C 23,9 C 98 % 15 lf 1020,6 hPa 0,2 l/m 4 min 0 min 836 W/m 20,9 km/h
O-SO (4 Bft)
100,00 %
Durchschnitt _ 13,8 C 15,1 C 12,2 C 83 % 5 lf 1019,3 hPa #0,2 l/m #11:32 h #0 min. 251 W/m 8,0 km/h (2 Bft) 96,46 %
© 2017 W. Hausmann